GFSMA_con_3kmhel_057.txt.gz
Helicity
89 103 138 121 118 135 141 138 120 133 154 144 153 177 175 164 175 146 111 72 83 91 128 136 163 142 104 88 83 111 131 142 149 159 174 199 217 205 167 141 120 93 87
120 116 115 134 134 102 104 116 123 142 148 128 122 112 122 157 160 121 92 69 99 149 145 167 151 122 88 53 67 117 142 151 171 180 193 208 231 246 233 198 191 168 133
101 86 105 142 133 109 110 120 111 111 107 108 112 111 150 124 88 93 110 143 101 96 139 129 136 115 34 22 27 71 118 146 162 224 245 240 231 237 241 218 202 188 182
43 92 123 123 116 116 107 86 67 62 76 89 85 101 85 82 85 71 83 92 102 143 107 110 134 106 50 37 35 -0 -0 65 128 161 192 201 194 200 223 234 232 218 199
3 67 120 91 75 64 76 55 59 56 59 86 85 85 91 98 91 85 131 194 220 129 72 56 118 126 178 66 83 56 63 49 35 53 104 120 125 142 162 178 193 217 206
75 -10 46 -0 46 61 41 38 55 75 66 70 65 63 54 65 80 84 186 173 234 294 343 352 260 181 171 181 182 111 33 21 47 52 26 37 88 105 123 160 168 198 219
95 86 83 90 63 61 60 62 68 70 51 47 50 25 28 77 83 161 173 189 201 212 258 252 285 234 242 334 341 235 149 98 106 71 74 42 22 40 98 150 153 163 185
109 79 73 62 67 77 100 105 93 89 82 77 59 61 50 41 112 97 112 110 132 93 122 142 207 216 209 213 164 99 88 60 36 32 12 8 28 28 53 90 154 181 182
102 67 47 49 81 103 117 101 92 104 96 86 105 114 122 143 116 115 70 86 104 122 115 119 131 165 133 99 87 49 -12 -37 -7 -11 11 47 60 49 33 37 62 116 164
65 86 75 103 126 120 93 72 88 121 154 148 159 156 168 192 185 198 228 143 108 91 88 92 97 109 112 83 63 50 16 18 24 31 31 53 68 67 61 58 55 69 99
193 164 148 136 140 154 168 169 167 180 186 192 189 183 208 239 225 235 230 222 172 125 116 128 101 82 71 88 87 58 26 13 38 38 22 31 35 32 33 26 30 62 109
321 323 308 307 268 252 236 205 174 168 190 211 184 187 222 260 245 265 264 236 196 149 139 122 93 73 81 86 88 125 135 73 34 42 46 45 12 3 -5 -17 -10 19 58
310 255 276 247 218 197 186 178 165 153 174 233 231 201 195 219 218 219 199 207 202 159 151 123 81 80 75 92 110 146 155 135 90 55 57 62 70 47 16 -5 -15 -6 21
243 255 223 195 183 177 164 157 142 137 153 209 228 203 223 183 178 178 168 151 198 179 124 107 70 63 81 94 94 107 81 92 118 140 124 115 91 57 32 19 9 16 25
214 224 204 181 177 166 151 154 152 141 200 195 176 171 189 141 136 134 189 204 232 187 118 89 56 75 98 85 79 91 97 83 89 72 80 78 46 31 38 37 25 21 40
212 206 191 175 163 152 163 206 192 219 241 232 228 212 188 171 168 213 224 218 202 189 147 102 90 94 108 127 120 125 104 97 59 28 -1 -0 36 53 44 24 21 30 38
221 210 188 172 152 185 202 190 178 165 187 218 223 224 209 191 212 201 201 201 202 200 148 87 81 70 80 97 108 116 107 83 47 19 30 49 46 43 39 40 27 24 35
221 205 190 169 151 212 187 174 164 145 158 166 173 179 189 163 159 179 187 152 120 92 92 82 78 73 70 89 109 99 76 67 69 56 50 68 80 90 83 75 46 45 60
176 185 168 135 160 210 202 170 130 125 145 131 137 145 136 141 153 129 113 95 59 68 79 119 123 115 92 102 101 101 92 92 79 67 75 76 63 59 56 64 55 39 55
139 138 133 157 219 190 166 127 137 145 163 137 108 117 129 160 120 112 83 73 89 98 109 122 117 99 89 87 108 98 65 67 47 38 52 44 37 45 55 58 55 34 35
108 129 154 246 234 193 153 142 156 194 214 209 165 159 189 130 116 85 116 107 109 97 104 104 115 105 87 89 97 85 70 53 24 26 43 52 54 42 47 55 43 40 9
117 151 205 241 203 164 167 162 193 225 242 172 171 179 180 158 123 152 143 118 111 89 80 122 119 116 95 90 78 42 55 33 12 45 97 71 81 92 81 71 35 27 27
152 179 184 198 163 153 164 188 190 180 172 136 129 152 153 140 130 126 122 108 84 74 101 125 114 105 90 74 72 69 59 82 88 109 108 113 129 120 134 93 29 38 52
132 125 136 183 213 170 152 160 165 166 130 120 143 130 112 104 111 111 98 79 67 77 95 111 129 98 89 80 94 92 81 102 117 100 75 115 87 74 62 108 24 17 40
123 131 167 215 210 162 126 137 174 165 132 125 103 88 97 130 110 107 82 57 59 78 78 77 55 46 37 33 40 75 87 48 3 -29 29 62 54 32 52 69 48 -2 25
144 170 197 198 167 143 103 125 162 160 139 121 82 82 112 102 96 88 65 63 77 77 90 93 94 76 73 72 40 77 63 24 8 -22 26 58 29 61 8 35 26 -7 -6

GFSMA_con_3kmhel_060.txt.gz
Helicity
122 125 134 144 137 149 176 154 142 139 140 135 134 150 160 165 150 136 134 164 125 122 130 135 142 145 115 93 69 47 65 111 139 203 228 229 231 227 206 193 193 184 166
157 154 141 139 155 158 150 122 103 99 103 101 122 142 154 146 135 128 106 126 123 147 143 157 143 103 90 88 71 58 70 111 165 226 241 224 215 232 226 199 175 191 192
138 135 126 135 141 127 118 105 109 103 100 102 121 128 124 130 136 141 129 123 104 113 139 145 143 131 105 55 27 51 36 91 125 138 152 167 188 157 180 211 200 194 190
132 152 105 83 112 145 114 91 77 84 88 81 64 91 108 100 120 132 141 152 183 171 182 221 190 144 127 124 118 71 33 5 -27 27 84 121 134 124 128 152 154 153 186
146 142 111 127 162 157 111 69 80 48 33 12 30 62 49 78 118 149 147 194 217 279 267 264 263 285 209 179 185 132 98 32 17 -18 -50 5 67 86 93 107 123 167 166
135 148 150 133 95 82 63 54 21 16 -19 3 9 25 -14 16 72 121 132 139 154 205 227 270 245 234 286 305 268 208 154 104 71 46 21 -8 -44 -42 17 67 119 130 173
134 131 93 62 48 57 38 7 21 14 18 13 12 21 -5 48 55 72 73 96 118 134 154 194 210 201 202 231 201 158 101 51 35 28 10 18 18 3 2 27 103 155 155
146 113 69 73 53 35 33 68 56 57 48 54 52 40 58 46 39 24 41 85 103 105 140 166 167 163 155 134 98 77 34 33 56 46 33 15 -28 -16 14 28 45 80 156
121 105 47 22 16 10 41 59 72 75 78 52 45 68 76 83 87 43 78 99 93 86 92 124 125 155 157 147 150 116 63 31 26 48 42 24 19 6 23 40 43 55 71
100 69 20 64 66 61 118 99 83 78 86 80 98 106 132 151 127 117 115 173 174 135 116 117 120 131 129 134 140 128 69 44 69 69 46 26 28 35 40 46 48 76 94
171 200 198 202 186 192 174 162 145 127 130 143 154 152 163 171 182 187 171 177 226 143 128 130 113 104 112 97 96 107 73 51 11 13 17 50 46 29 51 36 44 51 53
273 303 328 209 236 222 219 197 174 154 145 164 186 200 219 213 200 209 220 197 227 178 141 136 121 106 83 83 107 123 143 91 56 78 88 56 32 50 34 50 33 18 20
385 491 382 198 235 223 201 178 169 171 168 172 189 206 218 221 218 211 229 215 259 216 187 182 141 110 88 75 55 90 102 101 110 121 116 105 93 78 64 42 36 41 46
246 260 139 204 158 145 151 165 150 141 139 149 152 173 189 174 208 198 209 216 234 223 184 153 133 101 121 105 125 130 76 65 73 79 98 110 107 91 73 56 38 35 42
126 211 216 180 139 145 150 135 132 144 165 175 175 172 185 158 160 153 184 203 236 234 147 109 127 125 107 99 107 97 105 115 116 119 97 72 59 52 55 54 61 49 37
200 185 180 170 160 158 138 139 132 155 177 155 155 193 210 217 214 231 259 279 257 197 173 153 83 56 46 53 60 95 121 152 137 98 63 50 45 55 59 63 53 44 36
219 182 174 171 153 146 130 145 148 175 168 141 119 148 160 192 196 223 220 191 142 134 116 77 67 19 4 25 60 88 101 101 96 71 67 53 65 87 101 104 94 68 47
195 223 189 153 146 140 152 162 173 161 147 126 123 148 129 146 164 173 166 139 121 96 79 49 16 26 47 56 67 79 87 98 113 91 86 113 102 89 82 74 68 61 67
186 155 166 167 121 138 162 168 150 146 131 112 138 160 147 149 139 146 135 119 105 75 56 55 58 82 93 73 57 87 105 113 96 83 71 56 52 58 69 81 78 67 59
222 166 106 109 146 183 176 153 144 130 132 154 151 172 169 142 138 137 146 133 86 61 57 70 76 85 96 72 81 87 81 89 61 52 36 39 49 64 68 64 54 51 49
124 62 106 154 187 207 183 162 156 135 168 205 226 247 221 177 143 163 176 96 72 65 62 62 72 85 71 58 59 67 57 31 31 65 90 92 112 122 121 94 69 51 39
67 123 126 128 162 180 160 146 170 169 194 198 175 164 147 138 168 184 136 89 80 67 61 78 99 91 71 57 84 64 69 61 51 75 133 116 167 136 140 115 66 53 42
102 111 117 112 145 172 162 170 163 179 175 157 150 130 134 175 155 138 107 98 81 60 68 93 101 102 81 84 80 72 79 93 76 92 91 55 126 106 127 95 72 34 20
102 109 106 104 146 176 158 147 146 176 177 152 148 142 135 124 114 119 101 85 67 62 62 88 112 113 112 105 100 80 68 74 76 65 85 45 81 63 69 104 48 33 17
110 115 128 155 178 181 147 124 155 156 158 145 144 129 115 112 101 99 89 68 50 51 59 66 72 77 73 65 74 89 71 59 36 31 119 54 69 61 65 62 48 15 12
109 121 144 195 201 184 143 120 147 201 177 155 131 112 99 111 102 84 83 62 54 55 65 70 91 97 97 96 61 96 98 69 36 28 67 36 77 121 42 45 41 66 54

GFSMA_con_3kmhel_063.txt.gz
Helicity
97 105 133 151 164 155 153 175 179 163 160 157 167 147 147 155 157 142 140 157 129 125 138 140 114 121 132 121 99 76 71 98 117 152 151 159 173 174 180 185 186 201 179
130 135 157 169 170 157 143 149 152 137 127 94 117 128 137 144 148 135 101 120 130 128 148 177 181 170 152 125 88 58 51 76 73 86 109 123 139 150 140 138 128 150 173
152 163 173 186 159 136 146 153 122 87 108 110 131 121 116 136 152 150 141 125 154 204 272 265 192 176 158 107 79 55 90 36 12 29 73 106 113 103 119 139 122 113 142
190 203 187 172 127 136 121 113 86 109 111 100 87 81 88 111 123 142 137 129 127 195 259 270 254 222 176 154 154 93 70 36 44 23 49 36 63 114 120 100 109 103 99
218 200 175 155 125 112 113 82 86 56 72 38 8 22 45 89 87 111 131 127 134 163 190 232 252 219 198 186 199 176 102 89 71 65 33 -9 -19 -10 30 73 80 87 101
193 170 139 130 124 108 72 53 42 28 -10 -23 -24 3 -19 58 54 113 111 80 104 141 161 183 203 215 239 208 200 178 137 91 81 39 25 16 28 4 -21 -31 -12 71 124
149 134 128 107 77 55 12 10 5 -2 -14 -0 -19 -9 -14 50 98 101 -2 36 91 107 121 155 164 187 212 252 222 142 103 56 34 47 4 -29 -17 -3 2 1 29 59 99
112 99 94 65 41 53 40 10 15 31 31 35 46 23 57 83 27 79 54 25 28 56 86 124 134 167 181 187 195 198 163 101 78 67 58 57 32 2 1 5 23 53 93
82 99 97 97 72 51 25 11 29 66 65 57 31 63 89 96 125 78 48 36 34 78 103 115 133 154 163 167 182 177 168 141 85 85 72 73 44 39 35 21 9 34 53
111 160 180 144 108 88 70 52 68 76 99 95 92 69 111 144 119 123 96 79 96 87 106 139 140 136 146 148 156 151 178 165 122 93 97 100 72 50 30 22 28 24 32
218 241 204 160 231 228 182 151 142 117 91 100 99 112 128 155 158 157 165 115 144 120 117 168 145 125 117 133 125 115 131 124 99 85 93 56 67 47 49 33 33 12 29
322 265 250 216 107 218 236 201 145 144 131 121 138 144 172 184 183 185 185 157 155 142 127 146 131 119 137 178 132 125 126 141 133 116 125 116 98 72 64 66 57 62 50
492 197 372 249 145 207 191 182 158 135 122 132 141 152 166 171 217 233 247 225 206 198 148 132 137 159 155 103 120 144 158 134 107 94 95 91 99 104 106 97 80 68 61
218 299 332 196 198 203 159 149 127 118 129 144 146 138 152 156 182 216 229 232 222 206 195 146 156 217 164 135 109 142 97 135 119 103 112 115 112 111 109 106 96 74 56
214 139 221 123 237 162 165 132 116 114 124 108 116 128 137 134 160 183 211 218 247 226 227 170 165 137 118 81 90 83 81 97 120 147 141 129 123 115 112 91 77 71 64
125 211 223 159 181 206 163 146 127 106 110 112 116 116 128 145 161 190 221 236 230 217 231 145 114 106 80 42 38 63 74 81 111 118 129 129 106 86 78 74 67 67 65
127 194 252 216 235 166 148 115 95 103 128 124 117 114 103 136 142 148 160 174 161 173 172 138 102 65 47 40 54 67 69 98 115 110 123 103 98 109 114 111 118 108 89
208 196 170 165 176 154 92 98 114 144 141 142 128 134 128 158 156 173 176 157 156 145 145 124 83 42 53 57 48 57 80 107 122 97 96 129 97 81 80 82 80 74 59
224 251 206 162 140 90 100 124 137 140 154 160 143 152 150 167 179 199 185 161 153 164 138 120 76 61 54 48 46 72 86 91 82 71 71 51 48 47 44 49 50 56 64
218 182 152 147 104 89 129 147 150 158 175 165 160 183 189 190 185 185 195 163 174 160 117 95 82 68 60 54 71 73 62 74 59 65 65 64 70 71 67 70 66 53 47
212 154 146 96 87 111 131 134 155 176 181 179 199 215 211 208 184 180 199 179 177 139 111 92 80 78 77 68 69 85 85 70 61 78 88 100 120 127 124 99 66 50 48
158 175 134 100 88 102 105 127 173 199 196 203 209 203 195 158 120 127 164 158 151 137 108 95 88 86 89 91 110 95 72 48 24 39 87 75 122 122 118 114 46 24 18
181 122 98 92 86 97 103 126 158 215 216 205 199 202 184 175 164 164 168 165 144 96 82 96 103 101 105 102 94 85 72 68 56 76 73 44 99 91 92 74 37 27 5
124 102 92 92 109 122 108 131 157 213 209 182 182 186 182 165 149 153 179 172 128 97 76 80 98 87 92 94 121 122 92 81 87 78 93 58 83 81 95 119 50 10 7
127 113 106 107 125 155 152 165 180 221 202 164 164 187 181 155 115 105 167 147 114 83 64 51 56 54 56 59 79 127 99 73 55 56 122 86 99 111 103 92 81 44 50
128 119 117 127 129 160 154 168 190 254 212 196 174 175 130 140 113 103 162 146 117 78 69 71 77 71 78 84 76 117 136 98 69 59 85 52 90 91 41 80 103 88 70

GFSMA_con_3kmhel_066.txt.gz
Helicity
89 107 128 142 155 157 160 163 139 138 157 149 134 128 142 132 117 91 93 130 139 157 159 171 176 147 123 109 81 54 50 78 81 88 90 119 133 123 112 99 94 82 94
103 129 138 155 169 172 159 143 136 127 123 116 135 125 117 101 94 91 82 118 224 262 239 230 191 181 154 105 74 36 42 50 55 60 69 90 112 125 127 116 93 71 78
119 134 143 162 158 155 157 131 120 122 105 97 119 120 110 110 119 124 120 119 163 248 284 263 192 186 159 127 95 52 56 45 20 -10 6 38 66 101 120 102 99 89 74
141 150 164 158 132 128 108 94 84 107 103 106 103 102 89 80 79 89 98 99 97 127 168 205 205 188 160 138 125 104 72 78 27 7 36 28 19 36 68 113 120 102 85
149 178 162 143 129 112 87 63 74 66 70 64 46 49 36 51 63 81 100 90 106 122 134 161 176 190 169 117 110 109 86 114 66 73 59 29 18 69 56 36 56 104 126
156 169 143 112 94 91 87 74 63 68 41 16 -10 15 -36 -7 53 75 72 53 80 116 138 155 160 177 218 218 208 152 128 69 42 38 54 52 25 67 89 52 53 40 48
160 148 115 104 104 121 87 53 20 -0 12 14 -19 -4 -19 6 67 71 43 68 51 47 82 94 119 148 174 205 212 202 152 111 69 56 28 22 34 63 3 -1 49 87 114
127 113 123 125 118 100 73 30 9 7 4 9 32 35 79 84 44 48 74 86 34 21 47 66 83 113 148 165 180 208 209 193 151 100 85 101 59 108 63 48 -3 5 44
109 133 148 149 129 106 45 23 12 19 21 40 47 83 120 110 140 95 98 89 60 65 66 71 98 105 140 161 186 192 195 186 153 106 86 92 85 82 41 45 15 11 13
172 172 173 169 152 88 58 116 73 126 105 107 110 93 108 157 153 168 129 132 136 96 88 96 107 136 173 201 188 183 156 146 127 114 86 76 88 114 65 57 72 61 7
221 227 249 169 150 199 124 164 141 203 155 147 155 149 145 165 185 216 210 154 173 138 110 117 121 146 203 214 184 160 168 189 188 141 114 103 97 63 108 66 25 31 33
232 262 240 254 170 159 182 174 189 198 159 175 160 159 172 184 198 199 213 191 190 138 127 107 139 167 211 193 184 202 219 197 163 145 111 103 97 100 105 95 82 68 63
282 343 326 209 214 134 247 167 204 210 177 177 168 168 164 153 176 202 227 213 215 205 200 173 117 181 186 148 133 149 142 138 162 121 116 98 98 103 102 96 90 87 84
401 329 358 218 106 241 236 247 203 176 175 169 159 142 130 126 162 201 226 222 201 215 214 157 160 195 196 119 94 102 72 89 78 104 113 114 98 98 98 92 89 85 75
537 441 307 167 148 235 215 175 167 171 147 137 127 128 132 127 142 153 179 204 220 176 210 172 178 143 156 127 97 90 76 71 83 86 93 98 100 109 111 103 88 68 50
494 196 226 126 184 189 215 209 165 137 125 114 121 119 125 134 116 146 170 202 229 227 230 167 139 148 131 104 67 77 62 48 57 67 86 100 109 117 115 101 83 67 57
306 122 140 137 211 166 189 181 157 125 114 109 122 142 120 120 125 157 194 225 242 223 218 183 153 144 131 85 70 65 57 58 68 65 82 96 97 106 105 92 89 92 92
115 119 114 158 171 177 175 165 145 123 113 129 130 150 130 159 153 167 211 216 236 248 256 197 162 143 100 75 66 54 51 58 75 69 85 77 67 47 45 44 48 49 47
105 182 177 195 190 177 163 127 116 123 136 144 150 161 150 169 174 194 221 234 242 233 220 211 169 134 81 76 62 54 53 68 87 69 63 45 47 49 46 44 42 43 41
252 243 228 197 181 150 115 105 127 139 147 163 171 167 162 180 201 206 230 220 240 229 229 213 165 117 88 72 70 57 53 72 83 80 58 56 47 43 39 42 42 33 30
260 258 188 194 170 123 124 126 133 145 161 172 173 174 184 185 169 192 231 207 215 231 222 190 156 121 98 83 66 70 70 73 80 66 73 68 82 89 77 68 53 30 27
280 144 190 178 148 139 109 96 117 150 164 182 188 195 200 173 167 153 133 151 202 217 206 204 157 116 94 86 83 72 70 69 68 58 86 58 72 87 98 84 33 10 -4
165 172 166 163 152 128 99 88 94 176 203 206 216 215 206 199 177 187 161 163 170 160 194 182 140 115 111 89 76 66 64 71 94 107 82 49 85 77 107 78 17 -7 -14
174 157 151 138 132 119 96 99 113 191 221 225 217 204 201 174 181 184 175 167 174 181 159 147 127 106 95 73 81 74 72 88 124 105 82 87 80 61 77 105 31 1 17
161 167 146 143 140 127 104 105 150 210 236 237 218 210 200 195 151 136 180 155 152 143 122 85 60 57 46 45 62 99 82 77 82 89 88 92 66 21 38 85 64 45 36
166 175 164 152 137 147 134 133 173 243 231 234 216 194 146 193 156 137 170 175 167 121 137 114 101 74 60 70 60 91 100 99 96 87 104 82 48 53 -28 55 80 96 68

GFSMA_con_3kmhel_069.txt.gz
Helicity
83 109 112 108 119 107 111 111 109 103 109 105 87 83 88 95 91 78 80 131 145 135 142 165 168 142 118 96 72 51 36 44 61 73 61 77 78 80 83 83 83 86 89
106 104 111 112 115 112 116 114 103 101 101 90 101 94 86 83 86 84 82 97 170 227 234 202 173 164 141 108 75 54 38 52 67 50 35 65 101 108 117 111 99 89 86
84 80 94 111 115 122 130 105 98 80 82 88 101 90 88 94 105 115 105 108 118 173 198 191 170 168 144 130 74 44 43 37 25 9 12 31 41 65 109 134 123 109 92
74 93 114 133 121 117 90 75 77 86 84 98 119 108 95 94 111 100 89 94 110 102 121 170 181 175 145 114 114 112 74 37 30 -5 8 28 52 41 61 100 112 118 126
86 110 137 127 101 92 91 83 80 77 84 91 91 87 72 72 92 63 78 102 102 95 114 150 173 168 181 170 140 105 82 132 65 31 2 10 3 27 73 106 93 73 60
111 146 131 121 109 119 102 96 95 71 65 72 60 56 33 34 53 68 75 82 89 83 101 123 126 128 157 173 177 166 124 90 51 61 30 35 39 37 63 111 77 66 68
117 136 147 140 132 113 118 110 88 55 46 45 30 48 16 20 58 75 73 66 81 65 68 81 72 79 102 128 157 179 178 175 190 160 184 103 28 2 45 35 -25 35 100
130 149 152 149 136 149 139 133 77 16 43 39 45 73 107 67 50 62 90 73 95 99 68 70 53 63 75 95 144 177 197 191 164 140 128 123 124 105 101 21 8 -32 -12
152 162 170 158 145 131 121 109 54 -17 42 52 71 100 94 116 124 128 107 103 121 116 102 78 71 75 90 116 147 170 213 202 182 149 123 104 102 101 73 96 74 15 79
167 188 188 162 166 163 139 62 53 69 106 96 106 103 115 143 149 156 164 155 151 114 106 96 101 96 109 134 179 195 217 233 220 187 140 107 94 85 92 79 91 113 6
191 216 202 207 183 159 186 92 62 68 143 131 126 146 143 155 150 171 152 146 128 112 120 129 125 129 138 169 188 227 251 242 222 195 164 119 87 79 84 85 77 48 114
212 209 234 223 263 267 243 141 80 156 203 155 161 157 153 174 169 154 145 125 131 123 147 170 131 157 178 205 243 236 226 210 191 183 166 138 113 97 71 65 71 73 78
225 270 285 346 343 351 201 68 106 181 177 156 143 165 153 133 115 115 121 119 134 129 159 177 176 179 177 209 213 184 139 136 127 112 101 98 95 87 85 84 81 80 77
250 341 378 417 250 218 122 122 200 157 172 160 166 147 126 109 114 110 114 121 138 144 139 128 181 168 175 162 143 102 97 60 63 61 76 75 79 86 77 73 70 70 73
326 421 429 386 381 29 140 169 192 182 171 166 153 126 121 118 119 101 104 126 131 142 147 231 190 180 149 135 140 117 85 66 57 62 54 53 61 68 74 81 85 80 66
387 318 277 265 42 78 126 184 199 178 173 160 136 119 112 124 107 103 112 123 142 157 185 200 200 175 163 142 141 107 76 45 33 37 42 49 58 65 77 88 88 92 86
418 220 158 110 24 136 172 176 169 179 162 126 115 118 117 117 120 125 131 141 154 186 214 185 202 182 158 125 123 93 64 52 50 38 41 44 49 55 69 99 95 77 63
172 173 129 151 124 128 148 161 161 156 133 120 113 144 129 149 138 128 145 141 145 150 210 169 167 180 145 128 103 70 64 60 56 50 43 29 39 54 58 59 50 36 25
128 139 228 148 146 162 158 163 147 123 131 137 139 151 149 157 146 142 144 154 159 197 215 217 194 197 141 111 82 63 57 53 57 45 34 47 84 88 55 35 25 21 12
144 210 150 192 154 168 182 151 139 133 138 149 157 164 167 162 151 142 151 159 197 213 194 208 182 157 134 104 87 67 55 57 56 54 45 93 114 68 42 32 24 9 2
141 156 173 141 179 185 168 140 136 136 143 150 148 163 178 171 174 163 196 176 182 180 192 185 171 147 117 103 83 72 61 54 47 48 62 102 85 79 68 58 33 13 6
237 151 122 179 174 145 135 126 128 128 127 139 144 155 185 194 166 165 174 166 146 169 165 167 146 128 96 101 83 70 63 54 51 44 52 65 71 56 53 44 15 3 -11
114 107 136 149 123 117 120 114 114 135 144 148 161 182 201 220 185 172 156 159 156 164 155 155 135 113 104 88 74 64 56 56 52 46 44 62 64 57 50 29 11 7 -0
116 111 128 122 121 113 110 107 110 137 155 159 182 186 204 187 173 167 166 164 172 148 135 147 129 106 97 82 75 67 55 50 49 47 51 75 65 55 29 34 18 25 25
111 108 109 113 127 123 123 119 139 165 177 180 193 204 188 167 161 154 170 163 141 127 115 106 113 98 83 73 58 67 58 54 49 44 50 89 60 49 24 38 39 41 47
94 103 109 115 127 140 140 161 178 226 255 234 211 187 157 128 154 155 176 173 150 114 107 118 118 97 79 71 58 62 61 61 54 44 72 73 48 55 33 25 47 62 47

GFSMA_con_3kmhel_072.txt.gz
Helicity
58 65 63 65 72 53 61 82 84 78 79 75 60 50 54 65 69 78 104 117 144 142 134 151 150 135 114 97 76 63 51 50 56 69 66 75 91 94 87 94 97 100 110
61 75 68 73 69 66 81 85 82 72 71 51 54 67 82 81 87 84 89 106 134 177 206 189 162 158 138 106 83 72 56 55 41 65 61 60 66 73 74 86 87 91 90
67 64 57 67 86 104 102 93 83 65 59 59 72 78 77 76 87 91 85 97 94 126 159 192 215 195 154 139 88 50 41 30 23 40 28 29 29 33 48 76 96 90 88
56 55 72 81 97 88 88 86 74 71 69 70 69 80 78 84 91 92 97 91 88 81 118 151 167 171 175 144 110 91 77 62 58 38 17 8 26 37 42 36 54 77 99
45 73 83 109 98 98 95 87 86 69 64 62 77 76 74 76 88 94 87 71 81 71 67 139 109 115 153 156 150 134 106 92 87 46 48 14 13 31 31 45 67 70 23
47 70 98 122 112 112 106 100 97 98 78 53 33 61 68 60 71 58 58 48 76 75 63 95 110 125 147 132 130 129 122 113 128 135 165 87 55 42 25 47 77 64 19
77 93 123 136 126 115 119 115 120 91 57 20 -28 44 86 50 52 61 79 70 75 79 111 97 76 95 96 105 62 112 136 155 160 161 155 202 184 214 162 15 34 23 43
89 104 142 144 133 140 133 131 98 88 63 29 27 45 76 124 113 57 78 93 91 82 94 93 98 80 73 71 106 134 134 164 165 162 162 164 166 168 159 125 2 15 24
112 120 138 158 159 147 159 157 133 103 47 50 25 66 111 129 173 171 133 111 120 86 98 80 91 89 79 77 81 67 240 183 192 189 186 179 167 164 152 155 108 39 37
120 126 144 172 167 164 179 191 167 115 88 73 74 48 133 139 156 182 185 129 130 84 72 74 84 104 101 96 124 181 271 254 243 234 215 192 175 163 149 136 137 104 87
116 130 146 181 170 169 228 224 186 165 170 106 96 127 136 134 128 154 159 149 121 94 111 118 118 131 120 138 126 267 310 259 260 250 224 193 168 156 142 116 108 95 113
127 140 156 184 212 248 288 205 132 95 88 122 156 139 149 175 184 188 175 142 134 87 118 133 127 132 167 145 195 277 270 243 234 203 173 154 139 119 99 81 74 64 66
141 162 182 220 250 287 228 279 118 76 127 139 158 152 169 167 149 130 141 134 121 93 102 169 144 149 165 165 151 264 182 170 152 144 112 95 96 90 81 77 73 70 68
118 168 197 227 310 328 243 165 71 82 113 149 145 154 164 146 120 108 134 121 122 105 93 86 140 201 206 166 190 219 99 169 137 93 56 58 58 58 63 58 50 49 56
171 237 253 321 329 280 271 5 40 102 138 146 158 149 127 122 122 115 113 111 110 128 119 124 198 190 224 159 156 190 127 120 169 79 67 64 56 47 41 37 41 51 62
225 232 303 334 246 158 89 89 89 115 138 164 153 136 114 110 110 118 111 111 113 124 149 141 155 162 202 172 141 181 111 103 64 57 44 41 35 33 39 47 55 60 76
258 236 289 246 97 127 132 126 89 129 156 141 129 119 102 102 121 120 117 129 139 146 153 145 164 130 244 214 152 133 113 96 74 61 70 57 28 32 38 45 56 63 53
160 219 182 94 96 137 99 86 111 137 141 125 108 108 112 119 109 115 122 127 148 149 164 169 130 128 196 203 181 139 107 99 72 59 76 55 27 29 31 35 51 52 40
108 106 110 103 173 76 99 90 125 130 115 108 98 104 109 117 125 139 153 163 166 171 176 210 195 143 182 204 168 116 99 88 72 52 56 44 25 40 35 40 32 20 12
80 200 104 62 115 101 102 124 121 112 101 102 102 112 123 132 141 154 167 164 161 180 187 236 200 191 149 134 148 129 98 92 71 64 55 58 68 34 53 51 53 35 14
240 85 19 105 104 105 132 113 112 106 101 106 115 129 136 143 170 198 209 187 164 213 251 229 228 178 137 136 124 103 125 80 65 60 57 62 70 48 45 63 71 58 25
42 87 70 78 111 106 189 133 116 105 108 120 131 131 140 173 223 224 201 192 174 188 185 167 167 164 111 120 120 134 106 82 66 67 64 52 52 44 45 60 92 56 5
75 71 86 116 103 80 154 105 113 122 131 140 144 157 177 187 229 221 177 198 197 158 152 115 121 128 124 116 109 102 90 78 64 60 58 49 47 41 47 49 73 31 9
96 90 107 105 93 85 135 107 109 126 144 154 165 179 191 198 190 174 169 164 160 149 169 144 117 83 103 103 115 98 85 73 61 47 47 51 42 38 41 37 37 43 23
111 116 109 97 90 86 118 120 133 155 181 184 190 198 215 221 189 203 210 174 130 136 152 157 118 108 150 156 126 101 99 74 57 48 51 49 43 35 36 31 54 102 30
139 119 101 105 112 101 117 155 166 196 206 232 223 220 223 245 210 164 186 163 164 126 89 113 148 109 92 93 107 91 79 76 58 45 54 55 40 34 45 31 54 68 76

GFSMA_con_3kmhel_075.txt.gz
Helicity
32 21 60 35 58 66 42 60 59 66 82 71 48 33 36 43 45 63 115 99 115 136 127 140 129 117 108 102 94 83 72 64 57 47 48 59 58 69 72 64 68 83 88
45 58 73 70 60 24 51 70 74 67 63 49 42 42 55 71 69 65 106 118 112 153 179 173 150 137 117 92 84 81 64 58 56 45 37 43 53 63 59 65 73 72 64
69 71 55 49 46 94 121 116 84 68 58 39 41 49 55 57 76 73 74 112 114 116 142 159 181 187 162 127 100 72 66 80 33 40 33 21 18 32 46 45 54 66 73
32 34 42 60 92 93 96 80 68 67 53 60 66 56 57 65 80 71 93 119 128 126 154 154 145 130 146 147 148 117 104 91 97 73 29 11 17 20 35 37 46 47 55
25 38 70 100 84 99 89 80 78 70 82 77 47 38 58 61 85 93 112 120 101 106 100 183 106 78 113 113 102 90 86 74 72 89 63 129 57 58 48 37 35 52 52
37 58 97 93 89 97 107 100 98 101 103 99 57 65 42 44 64 89 97 91 112 110 73 126 115 121 96 104 74 64 67 68 69 78 111 148 159 180 180 150 115 79 72
55 70 88 76 87 109 118 116 123 112 107 89 41 30 27 112 52 81 112 104 119 108 138 102 86 109 92 81 31 109 102 77 82 93 111 126 162 204 192 189 184 56 18
74 71 85 82 99 124 137 133 121 128 114 97 61 25 40 100 146 84 102 120 151 119 99 111 128 96 71 72 99 124 122 124 76 82 117 142 154 175 191 189 167 145 53
78 72 96 106 108 135 137 137 142 138 119 125 74 101 62 106 193 148 181 187 176 131 128 108 87 92 81 87 72 151 243 207 160 143 142 160 179 195 205 199 178 170 187
93 72 97 115 128 129 148 146 182 199 175 149 135 53 81 93 164 206 175 189 171 139 125 113 89 91 94 111 125 186 244 245 212 187 189 194 190 191 194 185 170 171 181
94 84 105 123 130 144 178 192 256 187 212 173 145 94 130 142 140 139 157 159 156 137 133 147 175 141 117 124 148 290 290 273 240 222 219 201 181 169 150 140 133 128 121
143 131 117 129 138 149 255 238 223 223 146 106 88 101 154 166 158 171 192 201 208 145 117 127 142 156 131 164 202 290 282 220 196 196 182 164 158 136 113 97 87 76 62
177 140 125 155 168 232 259 225 223 192 124 113 94 121 148 140 144 152 194 192 194 148 134 119 110 153 135 163 191 258 259 203 150 160 128 116 111 99 88 83 78 72 68
163 138 142 168 196 254 264 244 198 171 122 78 127 129 117 125 156 153 156 183 197 174 149 118 109 107 160 186 312 318 270 170 206 177 117 90 88 82 64 58 53 51 47
179 149 160 222 296 338 304 306 203 90 64 106 113 127 114 111 144 130 135 142 174 202 195 147 160 120 112 151 228 262 230 179 278 175 102 97 72 67 53 45 42 42 38
157 266 275 313 414 285 310 165 41 59 79 126 103 119 132 123 119 122 121 133 145 176 223 147 140 140 136 120 143 241 207 212 168 112 92 88 78 62 44 40 35 33 38
398 398 410 320 185 195 140 63 77 109 113 103 121 119 126 110 119 114 124 144 161 166 200 200 181 154 193 175 123 223 206 206 143 140 129 120 78 61 39 31 29 34 39
415 322 239 106 115 109 99 146 95 85 102 119 111 110 113 112 118 120 132 135 175 178 211 211 208 211 187 174 187 199 215 193 138 103 127 127 95 62 28 26 25 31 35
307 302 136 94 121 48 23 64 76 99 117 106 98 104 99 99 121 137 151 185 211 201 239 260 256 252 231 240 190 174 175 146 106 77 91 100 55 32 14 43 24 19 25
471 290 125 81 93 -55 45 75 102 123 108 95 105 100 98 103 113 136 162 193 206 237 263 270 265 318 282 186 141 106 128 117 128 88 123 67 48 58 45 50 59 43 49
283 125 147 82 -0 69 101 101 121 118 117 116 98 91 104 123 171 190 210 217 223 256 279 284 261 293 204 114 100 117 123 152 104 157 110 70 57 74 57 46 44 48 94
125 67 99 89 123 91 229 187 148 129 124 109 103 104 119 143 160 218 288 295 288 250 246 229 211 181 130 110 131 148 158 179 155 120 96 79 69 62 56 56 83 52 57
81 71 109 108 119 107 176 162 156 127 113 105 113 128 140 151 181 187 210 286 308 279 249 198 190 146 89 98 103 126 120 126 126 126 120 80 63 64 62 52 55 54 59
121 134 112 128 125 133 170 132 134 125 122 117 125 126 155 170 184 206 234 263 219 162 201 212 163 116 81 75 105 95 138 156 143 110 84 70 65 63 59 63 26 25 55
125 106 134 138 143 116 169 172 159 141 160 149 142 143 159 174 180 215 227 257 247 207 136 187 195 150 167 145 141 146 157 135 123 98 59 65 65 63 58 47 46 84 61
164 167 159 165 180 143 241 240 211 188 173 172 162 160 175 182 185 189 226 226 238 230 99 106 147 155 126 113 143 131 140 135 110 84 52 63 72 65 49 44 71 39 47

GFSMA_con_3kmhel_078.txt.gz
Helicity
29 -4 47 27 12 68 76 76 69 50 76 74 50 40 25 27 49 66 43 72 108 154 158 140 129 119 111 104 95 90 83 71 60 53 44 48 44 47 59 64 65 71 78
7 34 58 25 127 98 58 69 65 71 43 65 55 45 44 57 65 120 74 74 110 161 171 164 158 131 113 95 84 76 68 59 56 47 43 36 28 37 45 49 43 45 56
47 64 87 114 67 27 103 132 92 94 77 67 53 11 22 28 64 64 150 100 112 142 145 171 187 183 172 145 120 94 84 66 47 58 39 18 13 23 22 35 47 42 30
82 45 69 46 88 154 157 113 81 68 47 45 69 63 68 58 79 37 83 178 184 198 184 148 134 132 132 132 109 84 70 67 71 71 46 50 58 37 36 26 20 16 23
-24 40 38 99 144 100 113 91 81 62 67 71 65 79 80 50 77 45 123 126 136 167 167 158 114 102 106 98 98 84 52 54 58 63 66 83 83 100 113 117 121 71 43
-14 3 74 149 109 103 120 83 100 90 91 112 83 114 111 93 54 103 112 113 133 196 129 170 154 132 123 99 65 75 71 75 79 74 74 89 106 112 142 114 124 155 118
18 50 144 139 85 107 123 138 129 123 126 109 81 39 53 195 163 115 94 95 131 175 170 207 146 125 133 95 84 124 75 59 57 61 67 75 91 110 136 144 143 143 148
39 89 149 132 78 162 202 150 124 111 154 168 122 75 55 141 157 111 85 113 170 207 161 135 181 211 153 128 167 134 81 130 132 110 100 104 108 121 137 155 159 155 141
85 99 137 143 116 197 206 137 125 151 153 193 137 105 80 119 137 137 175 161 245 254 191 159 142 146 141 156 176 214 209 188 189 152 117 120 123 130 131 143 152 154 151
104 91 145 168 151 202 180 161 141 196 220 293 224 105 113 152 125 169 163 196 211 222 214 175 143 163 163 185 215 282 276 258 221 187 170 160 149 137 139 142 133 125 122
154 193 157 160 235 214 194 179 234 260 223 214 191 169 136 176 148 184 191 170 186 192 239 254 212 213 246 240 251 306 297 244 218 182 155 142 138 142 149 135 117 105 101
186 111 178 247 220 189 251 314 322 262 229 186 145 161 160 154 170 190 224 234 255 223 187 193 179 175 187 244 245 304 335 300 238 177 151 136 135 146 135 108 99 95 87
222 167 162 319 292 218 348 413 326 264 205 167 157 155 134 164 174 183 196 214 225 201 196 167 151 157 157 200 299 359 329 324 247 200 174 139 105 88 74 81 85 80 82
206 222 229 308 322 370 442 426 305 263 234 208 197 177 123 128 174 194 213 224 222 229 212 173 152 162 183 202 279 297 345 316 282 305 228 131 89 51 63 68 75 60 49
179 195 261 337 404 483 464 395 302 281 308 265 14 111 132 144 149 151 160 187 227 229 236 193 189 154 146 160 192 291 308 279 343 303 242 140 74 94 57 64 65 46 33
181 264 388 520 559 488 402 376 341 373 115 57 123 119 120 145 149 144 156 172 195 232 250 235 225 201 192 195 211 226 234 247 324 262 227 159 178 127 29 29 35 34 31
369 475 705 577 538 399 324 235 170 74 113 119 133 147 161 155 175 160 163 166 178 213 254 262 256 243 252 230 206 244 264 302 254 275 174 121 168 121 35 26 26 23 23
429 586 651 527 414 280 207 124 142 184 140 128 167 158 160 148 157 168 206 211 221 214 248 250 290 321 302 249 257 273 311 300 284 221 130 145 167 152 126 56 37 30 16
490 482 432 473 503 368 175 137 134 75 119 141 156 165 159 144 148 150 161 186 208 213 259 303 299 310 301 289 358 322 239 226 177 125 101 147 206 188 160 85 64 52 61
434 395 400 411 238 310 148 83 85 121 170 195 181 164 146 132 134 141 153 175 193 243 285 313 343 356 343 302 272 238 147 150 162 148 144 133 204 138 133 100 65 37 98
378 427 314 248 205 139 115 85 183 276 294 235 171 147 127 121 122 141 179 207 226 243 277 308 313 307 302 232 195 170 138 160 177 178 163 201 186 171 175 107 57 32 41
350 308 194 159 119 108 254 252 266 259 211 159 146 127 128 122 117 116 130 147 201 274 305 368 356 383 324 256 207 170 134 133 124 169 171 184 219 175 141 87 54 70 38
249 231 103 120 169 221 224 230 218 211 165 147 143 135 133 129 127 136 149 188 209 231 296 313 327 326 300 241 199 198 171 153 165 145 182 171 153 124 78 76 63 62 28
170 119 137 227 228 212 234 216 191 155 142 134 135 143 159 161 162 194 180 174 182 198 252 303 289 233 214 186 191 228 189 153 149 162 163 146 113 92 102 89 52 44 35
193 225 245 223 239 320 329 283 193 203 216 205 160 154 170 172 162 158 171 165 164 174 169 161 172 157 120 145 221 237 215 155 136 160 158 161 117 100 86 76 60 43 42
226 239 307 377 330 269 276 242 203 195 195 180 184 174 149 146 146 158 180 187 180 167 188 188 191 175 109 73 148 229 177 144 161 154 138 144 106 102 52 68 73 53 27

GFSMA_con_3kmhel_084.txt.gz
Helicity
136 76 86 48 100 107 78 90 77 64 70 83 87 56 30 29 29 20 10 12 60 56 71 78 80 82 75 77 79 78 64 59 56 44 55 47 47 42 55 49 45 41 40
76 67 37 54 91 82 74 91 66 55 70 87 69 64 44 30 38 39 20 16 66 84 94 93 100 99 83 81 66 64 70 82 69 84 56 41 50 44 49 42 31 31 30
26 46 -12 61 68 82 87 102 86 80 95 85 59 57 44 41 36 36 36 34 54 82 98 103 104 111 97 97 95 71 71 81 86 85 68 56 84 89 81 81 78 75 37
2 -22 43 47 76 106 100 102 90 91 91 62 54 40 43 48 52 49 37 29 52 67 70 88 89 93 88 78 87 86 92 100 98 101 108 116 115 99 106 100 93 69 71
-25 40 14 90 114 106 105 117 96 122 75 60 44 43 57 47 49 62 59 51 67 66 59 54 70 92 95 86 90 91 94 101 106 110 114 116 126 147 152 118 106 105 100
-8 53 107 87 104 134 124 139 138 113 92 66 67 66 54 43 67 82 87 67 72 71 68 62 84 93 83 85 87 85 80 74 75 82 102 102 118 126 127 129 130 127 123
52 76 91 106 125 142 132 148 161 157 145 128 148 99 64 59 74 89 120 109 101 92 85 79 83 97 98 101 111 83 81 54 57 69 84 86 96 109 106 97 94 99 106
-37 64 -8 15 89 120 154 204 237 234 202 169 163 156 122 112 100 92 106 125 115 130 121 99 128 135 134 142 133 87 78 54 90 77 72 62 69 65 53 38 37 52 79
-38 -69 15 78 110 146 197 217 239 268 258 207 195 200 206 158 162 143 115 129 128 140 133 138 139 151 156 157 141 118 111 110 100 85 76 81 83 61 42 35 24 27 44
-131 -71 -30 77 87 161 210 229 238 253 279 262 237 212 218 226 207 184 176 178 163 146 136 141 172 186 192 183 162 152 173 178 145 106 100 102 99 68 55 46 27 25 39
-36 -2 44 120 181 193 200 282 295 290 302 301 317 291 286 265 245 249 203 181 225 210 212 208 227 259 241 211 193 172 155 200 181 150 140 138 118 92 82 69 41 26 25
37 46 99 157 187 210 257 243 305 349 356 342 360 332 297 262 249 284 253 218 220 172 176 199 217 212 199 168 151 139 145 185 215 194 181 169 167 162 136 110 65 45 37
88 103 131 198 230 249 286 285 331 392 458 472 438 342 244 238 274 290 281 237 202 157 148 148 146 142 136 136 140 110 99 143 182 179 173 188 168 159 155 124 90 77 79
150 140 169 220 270 286 307 379 495 542 662 503 517 355 235 224 271 346 238 240 233 205 235 170 141 121 120 129 128 116 144 136 153 166 198 182 161 164 142 111 98 80 97
177 206 212 223 270 352 488 577 626 670 576 780 382 247 237 253 217 218 256 191 217 212 200 158 153 109 120 121 113 131 153 147 149 168 166 172 195 189 201 165 119 89 104
258 259 250 251 343 486 489 583 688 720 512 447 344 276 251 274 192 167 164 178 199 219 246 172 157 147 133 136 120 132 162 152 173 180 210 232 223 204 128 113 86 100 101
314 306 304 329 420 422 421 530 617 424 442 415 354 255 212 206 166 148 164 168 183 225 247 202 180 168 177 156 146 171 186 214 236 202 198 215 209 195 81 67 112 123 101
312 297 330 308 308 362 410 469 480 413 412 377 287 256 208 186 159 149 174 170 190 171 211 195 184 185 168 143 175 189 224 265 267 230 224 217 203 196 200 183 129 152 139
247 309 294 265 279 314 408 435 466 415 429 320 258 250 188 207 183 207 217 214 193 181 193 227 211 211 196 217 223 244 278 272 292 214 194 170 147 142 120 113 143 152 147
445 369 282 275 343 391 398 482 529 343 324 186 262 184 215 212 223 225 219 189 185 203 207 222 226 219 211 202 240 247 253 289 299 273 225 215 149 133 160 198 174 124 110
433 357 392 395 445 464 454 533 323 373 429 337 177 254 267 263 247 245 223 216 221 221 218 223 223 219 212 210 218 225 283 284 309 309 295 238 160 206 202 88 76 121 127
455 480 416 448 507 455 485 213 314 367 251 260 303 292 274 295 307 267 257 230 207 213 213 217 223 221 202 209 223 238 246 287 271 284 280 272 210 153 156 169 139 124 126
430 437 458 419 467 507 352 374 320 256 328 337 335 292 279 277 256 234 222 201 190 180 180 209 221 235 214 225 227 208 214 229 247 283 342 294 208 161 158 137 94 97 99
459 486 490 493 542 320 414 516 284 360 370 355 317 277 242 219 200 188 175 172 167 173 175 187 207 209 215 204 225 205 202 218 208 269 311 240 215 170 150 122 76 65 69
418 493 497 356 451 380 479 308 374 370 365 340 283 243 205 202 194 212 174 162 157 152 157 143 142 141 133 132 150 202 214 211 222 221 210 221 196 168 140 120 97 73 103
444 462 522 445 421 499 335 363 367 314 349 300 255 213 222 199 194 185 169 155 147 152 169 171 170 165 152 170 147 179 191 213 199 211 181 224 153 173 141 100 104 111 111

GFSMA_con_3kmhel_087.txt.gz
Helicity
193 144 129 89 109 133 119 128 118 132 123 77 69 59 51 36 20 6 -0 -0 39 33 34 41 36 37 48 60 63 60 65 51 42 53 51 44 45 56 56 59 56 52 57
161 147 165 71 147 123 84 125 88 108 97 75 52 45 43 26 29 34 41 39 56 38 40 40 48 51 55 63 58 78 81 89 87 79 55 52 92 79 84 80 76 75 65
128 193 140 66 138 90 103 143 104 123 121 81 73 62 43 30 31 36 47 62 50 59 61 64 69 69 73 82 87 78 82 92 105 103 99 110 102 91 81 94 100 75 77
120 192 136 75 121 107 122 105 99 134 115 66 73 69 55 33 35 47 48 39 39 52 66 73 72 65 68 65 84 91 90 97 116 135 129 136 138 132 143 129 113 99 96
110 135 103 99 115 113 96 113 123 130 98 84 85 71 54 40 56 48 41 40 42 60 58 48 59 57 46 53 64 87 98 102 105 119 114 106 112 119 124 116 106 101 100
115 159 72 48 79 90 110 138 132 121 97 90 113 90 58 60 71 62 55 56 54 60 59 51 65 53 46 37 41 67 76 78 72 70 80 86 99 97 101 99 99 94 87
121 40 -6 46 78 76 99 114 156 144 125 131 167 131 105 85 76 76 72 77 84 88 81 73 67 71 63 27 31 53 63 63 51 50 70 54 61 71 76 73 62 49 50
-0 -41 -55 -62 102 124 126 159 202 176 145 150 181 178 133 128 105 96 122 116 78 111 100 85 101 95 89 90 67 47 47 50 40 66 58 52 43 51 46 41 41 35 31
36 71 -3 89 93 83 146 169 184 220 220 177 200 196 192 146 155 177 154 142 119 122 118 124 118 117 101 105 100 97 83 61 44 58 47 52 52 54 55 44 30 21 19
-53 -20 -25 -0 60 114 138 140 179 236 302 286 246 255 278 231 217 202 189 186 178 153 166 178 181 165 166 162 150 131 115 94 99 70 50 64 77 59 54 50 36 27 11
-113 -92 -0 22 57 93 133 175 228 233 279 310 356 340 331 350 316 274 252 190 218 198 204 211 202 197 197 201 191 165 136 115 118 107 76 75 80 80 80 76 54 38 37
-99 -73 37 47 53 102 167 208 245 235 227 290 370 394 378 333 335 327 304 215 236 255 244 242 217 182 201 216 204 163 150 140 131 113 92 92 91 103 109 94 101 111 97
-116 -103 -32 48 79 126 182 248 246 221 269 344 400 421 471 519 314 311 225 184 229 237 232 222 175 165 195 196 170 156 142 126 117 115 112 97 94 95 98 100 114 124 133
-122 -69 -17 48 75 166 225 247 298 345 397 387 494 528 482 635 453 304 183 246 241 232 221 208 164 158 160 172 152 136 168 137 132 136 130 112 106 108 102 111 150 155 115
-14 26 101 134 170 200 225 306 376 418 443 521 441 462 498 404 265 251 254 282 268 265 230 194 196 142 151 158 136 154 160 125 115 121 117 112 102 102 128 163 163 181 168
63 120 170 215 241 270 258 332 390 418 475 511 505 357 401 291 269 245 260 257 240 252 275 198 173 176 162 148 126 133 130 116 110 92 96 117 118 135 168 218 211 138 122
178 236 233 250 289 281 232 311 392 409 455 485 524 346 325 294 242 230 256 262 252 269 311 254 208 194 173 140 123 129 127 144 158 122 118 131 149 162 172 194 212 168 108
342 335 319 264 235 281 363 370 415 379 425 452 416 372 340 320 254 258 277 232 241 245 289 257 207 185 158 137 133 137 131 142 159 143 141 166 193 199 201 215 215 170 146
427 438 212 277 243 268 322 325 336 351 391 412 444 353 344 310 246 334 252 244 250 235 245 265 215 177 147 143 155 163 164 167 183 157 170 207 216 211 203 199 169 135 115
414 264 107 178 184 248 260 285 340 363 420 451 492 322 313 380 308 247 252 266 254 247 252 249 222 193 170 169 170 177 189 194 209 199 201 223 254 221 198 187 142 156 232
353 312 288 237 255 294 288 286 353 392 418 560 363 407 315 374 252 294 313 284 273 284 273 254 231 207 199 182 174 174 205 188 218 227 220 240 209 266 263 188 184 177 140
366 304 248 298 363 331 334 357 437 548 507 356 298 520 388 321 361 411 349 288 260 263 248 235 218 204 190 177 180 188 205 209 208 167 200 219 223 222 255 238 129 103 143
276 275 308 397 396 491 393 377 591 512 505 399 462 332 308 379 398 339 327 302 250 202 175 182 190 179 180 170 180 193 216 227 227 202 238 212 237 220 202 194 115 127 127
293 307 364 447 544 342 417 472 585 516 325 383 348 363 398 391 355 314 324 294 236 189 174 177 163 164 166 168 185 191 192 191 201 213 220 227 223 228 229 207 113 96 91
350 394 458 501 524 561 463 545 411 478 500 492 407 417 368 394 341 305 283 260 227 172 150 156 163 142 132 138 140 185 200 218 218 215 252 233 179 216 226 199 130 85 75
367 404 494 516 505 468 386 458 553 420 453 406 388 383 440 351 282 259 240 230 251 210 152 130 134 136 137 152 148 189 217 244 241 241 180 217 193 235 230 140 127 135 143

GFSMA_con_3kmhel_090.txt.gz
Helicity
214 193 172 167 171 145 138 120 127 92 60 73 75 52 18 25 18 9 -2 27 13 23 26 32 29 32 45 54 57 64 58 48 54 58 53 60 65 84 88 92 90 81 68
190 163 160 158 167 145 120 109 119 84 82 82 76 43 34 35 34 24 11 17 28 15 30 26 40 42 48 55 52 61 71 74 76 70 70 106 110 104 100 103 97 75 71
171 162 130 132 136 155 139 184 140 139 127 91 76 56 39 35 40 34 40 52 43 41 32 39 42 46 52 53 49 51 54 64 82 97 124 126 136 144 134 113 100 93 89
158 199 152 133 250 138 141 174 129 152 105 93 92 51 37 41 39 36 48 55 48 51 64 77 60 52 47 44 39 56 55 57 78 101 112 116 122 120 117 107 102 99 102
153 143 106 172 169 136 153 158 133 149 100 87 84 63 49 54 47 51 45 47 49 55 60 53 60 49 48 42 38 52 67 71 86 92 93 94 99 98 96 94 99 101 103
168 134 152 112 175 133 135 133 132 129 94 106 112 87 81 81 73 56 47 60 56 55 60 62 68 61 52 37 37 39 51 68 69 82 84 84 72 56 66 79 89 86 77
150 135 116 117 115 92 99 118 149 136 147 141 149 112 98 93 77 74 89 82 85 72 69 82 87 80 61 37 39 28 44 52 59 65 73 76 73 59 58 59 56 49 45
135 112 146 104 99 92 94 124 163 178 152 155 151 141 99 103 87 105 125 124 111 116 91 85 103 93 89 76 59 18 16 29 44 33 91 77 67 66 52 45 36 29 24
71 156 60 63 72 78 91 107 142 195 204 155 167 163 143 122 158 180 145 156 153 144 121 120 115 123 133 134 96 69 33 37 56 70 96 79 61 63 57 43 44 37 18
64 165 53 58 60 82 86 129 173 188 214 242 221 197 207 163 150 153 172 169 167 162 155 155 162 152 168 179 134 107 95 93 98 70 66 81 79 89 87 75 48 26 17
81 32 43 57 51 87 120 141 155 173 220 243 318 293 278 288 287 292 240 200 198 181 167 159 176 183 185 215 189 150 139 130 119 89 88 88 84 86 91 92 84 59 58
-108 12 -2 27 59 93 143 145 161 185 201 234 247 305 318 351 306 305 253 332 268 215 187 184 208 206 215 230 180 161 177 168 156 150 135 107 85 82 78 92 106 89 91
-187 -186 -91 -56 10 104 125 151 186 212 254 248 261 273 339 360 367 345 346 407 328 270 182 169 208 213 215 236 177 175 176 170 163 157 139 118 97 85 80 79 93 96 98
-175 -158 -131 -83 -36 101 137 169 178 233 264 268 302 335 392 358 397 323 399 402 257 219 233 203 231 176 184 199 172 172 181 144 129 128 121 111 116 102 92 78 70 89 91
-114 -82 -41 1 40 103 157 205 212 213 267 290 277 337 419 430 326 325 414 327 274 240 230 231 196 153 135 194 157 181 170 123 123 119 117 114 105 98 103 101 98 105 120
-110 -61 -35 17 83 132 172 209 212 221 215 248 293 342 402 441 393 315 326 289 282 264 265 210 181 184 181 184 160 187 162 127 118 107 104 106 108 112 106 116 120 127 134
-14 -38 -38 6 54 138 201 233 219 232 115 186 277 340 397 395 393 350 333 337 289 297 307 262 239 232 211 185 171 170 147 149 148 108 105 110 118 124 129 134 133 136 143
40 54 90 128 183 200 189 166 163 189 211 213 315 337 359 408 349 377 413 369 289 320 358 341 261 252 213 203 193 174 151 150 153 135 120 115 126 133 142 160 170 166 173
149 188 191 248 241 226 373 262 162 165 337 350 387 354 361 426 386 494 316 338 400 407 400 346 292 278 239 215 217 185 166 154 155 124 121 126 122 129 142 160 178 188 184
213 221 206 185 195 312 256 215 132 190 311 345 328 308 371 405 456 403 374 313 424 405 331 327 346 305 259 224 216 202 183 151 150 134 133 142 128 127 119 133 158 173 179
232 235 239 294 298 218 215 228 271 300 300 313 379 427 480 361 442 423 389 390 391 297 272 362 361 336 321 279 246 193 192 158 146 135 133 142 156 164 162 144 135 144 143
261 264 298 280 293 223 200 239 284 321 362 420 498 524 513 562 589 332 497 302 241 260 349 359 334 354 316 248 201 203 193 193 189 92 105 137 130 145 153 176 119 109 173
284 270 257 248 187 171 201 273 346 465 463 558 552 544 694 646 431 483 348 328 385 406 337 307 333 288 287 227 208 205 187 186 190 128 127 145 143 152 154 164 121 136 168
221 214 238 277 316 294 365 426 480 496 548 437 531 629 446 410 400 381 363 334 364 344 314 317 271 215 206 184 150 149 148 150 146 135 121 178 162 170 179 196 122 127 154
254 300 316 318 325 336 381 391 439 479 445 492 588 429 512 499 394 329 404 399 405 411 338 293 244 188 168 177 156 183 183 169 167 151 175 187 180 182 181 179 192 119 136
262 287 364 385 439 450 482 497 468 437 519 511 604 583 560 457 456 361 416 463 501 395 364 384 322 279 239 255 227 232 219 190 159 162 148 187 173 198 198 188 147 174 128

GFSMA_con_3kmhel_096.txt.gz
Helicity
297 199 175 168 119 80 29 16 27 28 37 33 17 39 26 40 28 45 41 35 31 23 22 25 29 20 20 22 30 27 31 34 26 25 40 43 56 71 78 83 83 80 86
308 291 189 144 130 51 32 19 37 40 56 46 40 45 41 33 23 43 52 36 36 33 29 21 23 30 32 26 29 24 15 32 35 46 57 64 66 77 80 87 87 90 93
352 386 222 126 100 55 60 47 56 64 73 30 56 50 52 35 38 40 45 56 49 43 43 39 40 39 41 34 27 23 28 34 41 42 62 71 71 79 76 92 104 110 111
244 368 147 118 121 101 68 85 74 81 74 42 54 64 58 51 42 31 36 42 44 44 43 46 47 43 40 34 28 26 34 35 38 61 60 68 67 66 64 81 103 112 106
245 170 155 114 103 121 98 93 70 78 97 52 62 69 79 71 50 43 39 29 44 53 39 81 56 54 44 41 44 41 42 40 44 52 57 53 54 59 69 90 97 87 87
161 197 175 124 125 135 112 103 93 92 85 75 67 83 76 85 61 60 48 52 40 39 50 73 62 59 64 62 53 54 56 60 67 73 73 78 81 74 64 78 75 69 66
112 216 108 106 122 112 102 117 84 96 117 116 106 97 87 98 69 67 61 65 65 61 55 59 68 66 107 78 67 67 69 66 68 73 82 88 79 66 81 77 70 75 79
125 123 112 119 131 118 114 107 115 102 146 127 115 88 93 87 81 98 98 94 87 89 91 96 95 97 115 129 111 74 58 67 81 96 94 77 82 81 82 70 73 79 89
69 97 70 60 109 109 103 93 110 111 62 109 126 121 99 82 64 96 114 117 123 128 126 127 131 132 122 132 185 151 96 86 83 82 80 51 113 119 97 68 72 65 70
179 139 67 79 89 91 126 106 89 92 32 75 111 95 107 174 101 95 78 101 117 130 140 147 163 179 171 166 177 182 198 118 102 86 75 83 129 132 114 97 90 75 60
166 178 129 93 100 80 134 126 92 -4 35 76 91 103 99 111 120 161 116 116 119 112 120 158 198 242 189 255 249 266 207 188 143 120 115 119 124 108 129 127 131 112 97
205 205 166 140 117 167 185 70 32 -49 17 40 78 119 135 132 103 144 214 215 162 158 182 251 232 216 263 327 289 283 257 190 169 153 145 143 123 106 104 117 128 119 96
180 252 231 166 139 115 61 10 -45 -50 6 36 68 120 184 193 176 202 251 261 279 250 230 246 310 231 268 335 293 279 230 194 180 193 183 182 150 143 133 135 129 107 93
173 205 182 117 61 21 -51 -70 -38 -9 -0 6 18 69 144 170 230 314 327 314 311 278 314 351 238 277 279 301 308 287 259 220 240 228 214 207 196 191 188 179 160 128 98
95 119 121 71 13 -8 -44 -54 -24 -35 -5 -0 18 52 139 193 213 202 289 343 418 347 325 297 309 234 278 276 287 277 243 247 241 228 211 198 193 191 193 187 182 153 118
-0 -4 -3 20 27 -0 -20 -36 -35 -25 -24 6 44 48 65 135 171 211 267 303 306 348 304 312 234 210 224 256 267 262 268 290 253 259 213 211 211 187 180 175 160 147 129
30 26 35 20 15 40 40 33 18 13 31 34 48 113 112 126 189 268 275 335 344 316 366 286 262 231 269 302 320 294 312 306 344 268 237 231 222 211 203 196 180 168 165
34 41 50 64 73 79 82 102 108 141 125 125 207 223 167 306 236 388 285 313 309 498 321 252 302 441 377 454 521 367 386 379 316 272 290 256 241 244 226 199 194 186 163
43 48 52 51 57 72 84 95 160 162 186 215 201 159 184 253 268 357 389 442 454 366 299 275 312 582 617 714 675 491 417 424 401 336 298 253 245 264 239 207 178 183 157
63 66 66 67 70 74 73 77 80 72 81 115 141 189 171 217 234 263 322 356 371 419 397 562 610 668 765 779 666 535 572 460 338 256 277 293 279 216 212 186 170 177 153
78 93 71 63 67 83 109 109 136 159 153 165 181 172 138 188 225 275 272 277 320 382 517 576 549 627 566 788 723 624 505 503 357 300 290 216 208 214 222 195 205 180 155
84 88 93 91 97 134 157 166 175 196 192 182 175 252 280 262 285 343 403 471 467 395 511 542 432 477 690 673 503 502 426 399 455 242 329 292 223 278 209 223 210 200 197
100 100 125 174 277 327 289 218 181 212 250 265 266 261 283 308 358 379 493 556 620 620 571 450 473 528 572 508 435 400 462 506 429 270 213 232 237 231 204 202 177 164 166
316 327 345 339 309 292 287 262 287 259 283 302 318 332 365 406 408 425 401 462 514 519 490 473 524 545 493 548 549 435 289 222 198 183 202 245 221 233 200 188 163 166 132
392 379 366 354 331 337 355 285 222 253 299 334 349 362 350 359 403 400 358 386 390 272 331 305 287 315 287 273 256 209 149 146 174 182 189 207 190 206 209 189 156 145 100
393 376 411 397 371 306 336 307 256 232 260 237 281 315 369 323 329 343 306 281 257 262 215 185 151 126 116 121 199 210 244 255 262 270 172 301 260 239 240 179 149 146 146

GFSMA_con_3kmhel_099.txt.gz
Helicity
210 106 144 200 95 79 66 51 32 30 6 15 18 10 -2 44 74 70 47 52 38 37 36 35 31 28 28 32 33 39 36 29 27 34 40 49 67 63 64 64 66 67 73
207 168 134 180 110 84 59 43 34 42 21 17 25 17 21 44 34 79 71 51 49 44 35 34 26 27 26 20 21 17 33 32 29 37 47 56 57 68 66 67 75 79 83
235 173 144 110 98 102 67 42 79 29 33 30 32 39 17 35 50 48 79 67 58 45 44 34 35 25 23 24 25 24 21 37 38 58 63 55 52 61 64 69 74 75 79
207 240 222 239 134 123 87 95 72 40 51 37 50 34 27 43 63 51 53 74 54 52 55 48 46 41 28 39 35 32 42 46 55 58 61 57 57 66 76 76 71 71 89
291 282 309 359 147 130 123 107 58 42 63 36 45 49 42 54 66 60 56 73 81 59 64 90 65 60 53 41 42 48 57 54 57 75 70 74 83 84 76 73 69 76 97
345 378 465 325 71 119 125 110 80 57 53 48 61 81 61 67 74 69 60 65 69 71 76 129 102 67 70 59 56 61 57 64 64 62 76 85 92 86 78 67 64 80 101
346 403 197 183 92 125 139 112 98 70 89 82 93 115 69 82 86 68 75 77 87 84 61 101 135 78 125 91 74 54 68 85 78 86 103 110 100 106 88 68 72 86 94
393 315 250 59 80 116 137 109 108 98 130 122 107 73 38 51 65 81 100 103 102 102 92 89 108 114 116 170 127 87 83 96 114 117 119 114 102 103 95 77 65 74 85
529 269 115 5 99 118 132 132 117 107 160 105 122 88 35 8 40 85 112 123 113 123 121 132 131 122 132 203 232 194 144 127 139 124 121 128 111 108 88 77 80 83 85
199 98 55 51 166 162 84 111 117 118 121 99 130 40 65 125 92 100 61 67 94 147 157 143 150 160 145 185 197 304 297 198 174 163 163 137 133 87 96 89 91 74 63
137 85 62 73 129 -7 62 102 109 124 173 86 58 29 14 63 92 114 119 140 136 131 158 197 169 129 198 219 252 236 395 338 256 211 189 168 137 114 123 131 116 99 89
212 173 122 110 167 70 76 113 148 145 150 54 81 -11 8 44 51 92 90 108 185 249 246 274 248 226 240 307 301 270 364 407 372 277 233 197 165 150 160 156 135 125 122
180 169 118 182 158 61 91 120 163 110 142 74 57 32 62 77 117 161 187 184 192 194 279 343 316 364 384 330 297 304 358 408 392 351 289 257 209 181 184 176 145 112 112
142 170 204 199 72 90 80 91 126 79 80 49 -1 -5 33 73 123 142 150 190 210 192 208 292 304 373 411 354 322 340 361 356 371 338 308 282 236 214 206 188 187 166 158
37 31 30 22 -4 48 55 63 36 21 63 47 -14 1 57 111 127 158 185 244 233 203 200 238 281 309 416 429 388 320 220 288 330 325 318 278 257 256 231 237 238 237 221
41 84 112 126 119 102 78 64 35 47 41 65 83 91 97 115 131 160 230 201 195 237 266 315 356 364 453 431 336 383 339 241 372 355 364 370 302 266 260 252 233 221 216
64 81 106 146 145 138 116 69 25 40 50 59 92 121 120 140 205 244 324 369 417 490 551 492 481 413 436 472 537 342 319 307 439 426 424 399 326 291 309 294 256 224 193
53 65 89 93 86 89 75 64 67 84 99 99 92 122 167 217 304 408 391 312 327 358 453 411 420 431 534 576 454 381 391 352 411 450 437 395 345 317 345 298 269 221 200
38 36 46 65 68 69 75 77 91 91 106 121 138 153 214 274 256 282 276 258 237 266 354 401 343 319 398 528 485 629 615 824 706 719 518 443 484 439 368 313 243 217 225
59 51 56 59 71 66 68 79 84 112 129 145 185 188 179 232 223 232 256 243 236 260 327 345 344 377 458 499 609 659 800 907 863 702 647 709 622 512 436 307 298 255 180
68 51 62 65 73 97 113 103 138 159 171 182 186 318 362 256 384 332 244 225 216 244 285 342 467 451 471 479 463 545 605 722 670 594 517 512 490 375 359 307 226 174 161
64 60 67 86 107 258 278 244 225 211 266 303 297 288 283 299 282 342 376 412 394 284 299 329 339 352 388 381 411 481 497 474 509 445 526 523 501 484 272 219 189 191 217
111 289 377 371 374 341 325 336 341 322 316 322 324 318 280 304 258 213 253 295 344 401 411 340 382 378 367 397 375 373 439 493 506 473 413 379 303 263 179 122 109 155 172
412 383 413 420 424 399 362 334 338 326 356 369 304 300 265 256 212 165 153 178 208 228 251 239 263 276 278 236 269 291 280 258 237 218 204 268 227 219 182 193 164 179 146
548 516 498 478 456 433 418 397 335 326 347 331 337 276 268 238 273 240 191 208 193 182 195 225 223 206 210 207 222 219 232 246 246 231 202 206 203 187 186 201 203 144 148
514 490 522 535 503 452 445 370 286 250 274 241 248 247 279 203 225 232 181 175 178 177 175 156 114 76 67 120 145 179 240 284 302 303 235 335 341 342 293 217 157 144 154

GFSMA_con_3kmhel_102.txt.gz
Helicity
195 184 177 152 139 135 109 72 20 6 -5 14 -5 5 -7 141 135 70 70 72 59 48 40 46 48 36 24 27 31 30 40 40 35 39 56 62 81 76 79 73 71 75 82
196 175 196 146 141 136 99 61 21 38 17 10 41 4 21 84 128 88 86 60 66 49 46 48 49 31 29 29 32 40 34 43 46 59 69 75 71 78 76 69 71 76 78
177 184 218 153 118 123 101 52 16 82 67 59 26 14 24 43 125 165 87 88 65 58 54 46 44 33 29 32 28 27 39 40 48 56 56 66 75 83 78 70 72 77 78
168 196 220 134 84 106 90 56 88 117 76 60 47 27 43 54 87 174 97 81 82 74 47 44 46 42 40 24 31 27 33 51 45 52 67 71 77 76 69 78 88 89 87
210 193 160 103 111 101 99 111 158 119 117 57 67 36 49 54 82 65 140 116 89 88 103 68 71 74 63 44 39 34 42 48 57 59 74 74 71 75 81 85 91 92 84
204 259 252 147 193 172 153 192 182 121 93 54 46 74 60 68 79 57 59 160 162 178 162 124 94 95 90 71 54 43 44 65 68 74 80 88 79 84 100 106 99 87 77
244 295 279 259 221 231 324 206 184 143 113 61 140 150 88 93 86 60 91 99 157 157 169 156 186 166 142 128 97 60 63 63 78 94 101 97 94 105 115 118 101 81 67
316 299 361 311 376 419 229 200 196 124 128 89 157 197 147 135 59 62 90 98 106 158 156 144 223 200 168 184 151 108 94 93 103 112 121 142 133 125 119 120 106 85 78
411 423 436 526 541 431 208 140 150 110 160 161 187 170 145 80 86 72 41 89 107 159 171 192 177 230 236 249 255 209 191 158 131 125 170 181 193 181 146 121 113 108 97
397 440 527 497 546 336 119 134 107 110 163 173 146 69 132 135 111 16 49 29 89 97 124 158 186 207 210 248 302 342 268 262 215 191 208 240 248 230 182 150 121 113 116
460 437 431 380 178 118 84 145 168 117 200 126 141 150 85 140 148 111 66 81 81 97 144 170 157 168 224 250 248 312 340 348 271 256 254 275 268 273 259 190 120 86 74
457 446 489 189 123 107 111 130 46 83 114 165 173 184 181 161 68 96 104 149 208 210 196 203 259 243 226 274 341 277 384 488 414 301 317 299 287 279 298 285 221 163 129
298 254 134 111 152 76 60 41 61 95 98 172 171 142 118 106 70 77 134 174 177 189 217 247 280 329 379 382 416 388 426 475 479 420 366 340 309 279 296 295 251 191 165
130 99 93 110 70 17 100 43 -22 55 64 136 240 260 135 107 103 82 182 224 210 232 267 326 279 280 363 450 521 433 414 443 464 380 375 384 335 314 299 307 321 280 241
206 168 149 50 35 82 42 -20 41 50 124 142 162 127 96 81 83 123 195 237 259 230 225 248 309 273 415 426 530 539 494 398 378 432 424 435 317 310 320 299 308 279 244
71 151 168 87 53 95 92 55 30 29 43 75 120 139 174 155 128 172 227 276 289 308 320 376 297 248 341 399 442 469 496 493 491 385 426 424 312 283 316 323 309 328 287
36 57 98 114 73 86 85 70 84 68 32 82 155 197 172 182 196 221 248 283 351 462 384 332 354 273 303 353 395 474 416 464 477 392 425 356 278 297 315 322 277 283 266
53 81 85 101 128 126 96 87 96 117 120 130 128 146 170 174 177 193 248 321 395 415 408 291 290 285 271 257 338 359 418 388 412 356 337 246 269 340 352 604 391 401 392
58 53 84 71 61 79 101 136 147 137 133 122 132 142 152 159 171 221 295 324 414 323 349 230 230 212 267 352 363 347 422 442 481 614 549 573 485 503 616 680 840 635 440
50 41 41 64 72 84 90 96 106 113 110 119 151 255 289 312 306 294 294 340 284 183 205 222 198 193 271 256 293 282 289 302 362 436 521 540 603 653 642 640 652 551 497
80 70 66 61 70 78 134 135 131 161 260 300 324 356 377 406 427 308 260 157 182 223 186 151 233 204 223 228 249 243 254 277 271 331 338 463 476 450 431 468 466 423 359
104 94 118 245 351 293 280 230 280 298 342 331 341 366 312 232 215 235 167 241 236 151 204 165 180 215 249 245 221 245 264 282 283 330 305 302 280 316 322 301 255 226 203
343 376 368 378 383 377 383 387 423 418 421 447 416 380 325 296 283 324 272 207 294 173 178 159 172 220 231 260 240 228 238 253 269 235 228 232 224 235 197 195 168 142 134
476 469 492 503 530 511 465 458 441 387 390 422 451 351 387 350 372 238 282 165 160 212 225 188 183 189 192 212 232 230 225 228 233 226 216 258 232 247 220 213 132 98 121
605 573 546 555 553 517 452 422 388 383 410 413 351 346 305 270 409 277 140 171 168 201 135 151 145 162 185 188 204 226 280 292 272 279 280 307 294 296 256 215 166 126 128
676 627 631 601 579 544 495 426 339 307 296 169 193 255 336 240 253 261 225 202 200 189 182 195 190 185 157 189 179 192 255 279 281 197 303 300 298 266 228 248 270 276 297

GFSMA_con_3kmhel_105.txt.gz
Helicity
197 153 144 151 161 160 107 97 36 20 22 71 39 99 67 103 79 64 69 60 44 42 42 42 39 33 19 14 13 20 21 19 23 28 39 41 55 72 76 72 71 74 79
172 156 181 157 161 161 111 92 47 37 34 55 31 81 98 111 85 86 90 68 58 44 46 45 41 34 19 19 17 17 31 37 33 40 39 43 58 61 70 74 75 81 84
181 141 149 141 176 165 97 71 52 57 53 68 32 73 84 81 86 70 100 94 68 60 44 44 35 29 29 28 23 25 29 27 26 33 40 54 55 61 71 76 84 92 105
164 164 148 151 223 158 102 77 49 63 95 87 35 41 85 86 87 88 76 91 84 64 43 44 46 38 30 22 16 11 19 29 9 32 56 52 53 65 76 87 97 99 97
188 211 170 177 191 181 130 93 76 111 113 88 44 47 36 119 109 95 77 79 68 74 65 57 65 61 49 27 17 21 25 25 34 35 56 54 58 70 81 81 92 97 105
223 289 203 188 224 154 128 120 130 163 124 93 85 62 34 77 93 108 116 88 84 84 74 76 76 78 84 78 49 40 36 48 56 60 62 70 72 78 94 92 94 95 97
315 265 208 168 191 156 94 162 201 177 155 112 148 100 96 65 67 86 132 121 103 113 122 113 115 113 99 116 102 70 57 64 72 89 83 71 97 117 114 116 112 111 98
309 322 218 179 160 188 120 192 185 225 152 140 155 188 158 108 79 66 65 112 121 164 168 176 174 171 166 171 152 123 102 95 89 92 112 131 136 138 122 120 139 171 129
280 273 247 281 238 256 245 251 180 215 191 173 183 183 165 103 101 82 69 76 80 137 188 214 192 215 232 233 207 172 170 141 135 140 161 204 171 177 204 148 158 170 175
233 287 281 385 333 231 182 237 221 161 175 192 231 180 166 109 122 112 67 31 70 73 90 134 193 238 228 229 255 243 240 222 220 182 200 230 265 258 264 234 197 173 179
252 268 361 405 494 393 361 312 308 259 171 200 132 205 167 137 116 133 54 81 87 69 11 105 165 207 221 292 310 310 344 342 274 275 258 255 299 326 319 279 244 211 189
323 315 396 421 379 533 478 409 346 282 199 219 128 151 131 161 121 137 116 92 93 103 133 128 150 181 221 254 282 312 333 357 367 384 308 290 301 346 350 321 302 273 231
382 446 395 348 475 431 549 360 305 240 137 120 101 140 121 151 176 139 112 90 82 117 149 161 210 251 262 284 308 308 355 466 465 507 437 323 356 383 360 322 305 291 240
450 365 433 456 551 385 288 204 162 127 126 57 58 123 146 146 220 309 219 125 121 98 144 207 226 267 282 317 353 308 339 359 414 476 480 389 331 390 400 271 294 330 313
283 417 482 392 181 207 170 127 89 95 84 41 -42 -56 96 145 194 211 220 198 156 102 132 186 248 249 281 295 282 258 240 287 300 356 374 400 409 417 388 353 317 410 285
91 137 103 154 124 90 93 60 73 39 19 -69 -20 68 114 146 171 193 195 225 247 236 216 224 257 289 283 275 278 283 221 233 267 285 324 365 346 354 350 309 329 364 270
90 87 130 127 61 57 29 36 26 57 68 87 107 118 124 161 174 202 209 200 232 274 264 237 286 315 323 316 260 214 204 236 240 220 254 258 314 289 294 338 346 328 266
71 62 80 70 49 24 18 59 96 95 74 67 104 130 132 175 163 153 187 194 231 250 283 260 249 360 347 180 182 234 229 211 234 195 204 199 223 218 226 234 208 229 258
82 94 100 93 77 76 68 82 110 93 97 101 113 130 153 196 186 226 241 253 269 294 289 209 248 169 281 161 221 218 255 204 229 214 243 237 243 209 189 154 165 114 178
62 71 77 79 74 79 88 89 87 97 98 183 205 232 262 263 245 248 269 296 254 264 302 240 149 168 272 194 221 225 256 240 233 235 245 239 250 261 270 257 258 243 235
68 61 97 70 77 110 141 138 159 184 241 273 295 327 352 382 447 450 343 400 307 310 183 298 271 266 236 247 256 247 212 234 226 252 267 285 265 255 243 210 196 196 206
99 179 273 283 289 255 239 242 293 335 356 386 451 461 397 361 397 445 453 394 420 268 221 257 240 278 296 202 246 250 235 237 217 224 230 221 189 207 191 195 182 171 170
319 364 381 377 382 336 345 386 407 414 414 412 408 439 490 487 484 396 351 184 358 244 260 267 235 217 191 251 236 252 254 237 216 212 223 208 221 270 248 220 198 164 146
428 442 466 468 492 482 447 466 483 509 602 618 572 521 499 500 385 322 128 208 187 312 256 178 164 200 202 203 201 197 171 187 203 211 243 182 246 293 266 265 270 305 379
566 565 546 540 508 534 471 487 526 592 628 548 507 478 388 335 254 283 262 240 267 273 256 242 221 247 317 391 366 266 292 249 213 226 233 274 266 209 184 189 240 327 343
642 653 707 664 628 596 552 538 479 406 394 362 359 258 218 279 322 326 260 234 271 236 220 244 271 303 333 347 360 264 220 209 199 141 228 207 188 173 102 68 204 139 224

GFSMA_con_3kmhel_111.txt.gz
Helicity
366 313 284 173 150 176 83 109 169 175 146 114 117 105 96 75 44 32 43 45 36 32 33 31 34 30 31 22 25 22 7 -1 4 7 10 9 1 11 18 24 24 23 29
267 194 205 286 180 121 131 164 168 200 154 104 134 124 101 74 62 34 48 41 45 34 32 29 29 36 31 24 21 14 7 4 3 7 9 6 3 22 27 22 20 18 38
410 243 216 235 214 180 155 182 212 240 156 120 120 120 89 77 62 37 39 38 43 29 26 29 31 35 35 25 18 5 3 -3 2 4 7 -4 10 22 21 18 26 32 41
406 335 374 202 184 211 188 160 174 224 136 143 133 112 111 81 61 52 51 47 40 34 29 36 30 34 31 26 15 4 -7 -8 -8 -6 -4 -6 7 12 14 29 44 53 53
373 332 256 195 184 156 154 124 174 193 199 173 120 119 102 84 73 55 44 29 40 49 48 38 34 29 26 20 14 5 -10 -13 -12 -11 -9 2 2 13 10 31 46 59 60
171 187 191 185 192 170 178 157 123 192 274 205 163 116 95 98 85 56 27 25 45 51 47 47 42 36 30 23 4 -4 -11 -6 3 -6 -16 -6 10 13 35 43 54 73 79
231 208 200 178 172 163 140 106 155 177 299 253 260 187 146 99 72 64 31 44 56 65 53 50 54 55 47 39 31 -6 -18 -16 -8 1 15 35 34 26 76 84 67 79 80
161 149 112 129 143 147 149 159 162 303 276 224 242 253 211 152 70 51 37 38 51 70 64 56 72 72 70 75 66 22 -8 -18 -15 -3 24 50 92 125 114 117 116 102 95
142 86 112 142 131 134 115 162 181 217 267 221 218 225 262 173 156 106 43 60 74 84 77 92 95 98 104 102 83 54 43 45 20 13 33 66 94 133 167 157 152 152 139
173 148 76 98 133 191 155 163 195 234 283 237 301 269 233 155 203 179 135 104 83 89 111 104 110 129 144 145 120 118 104 149 159 123 89 84 98 114 138 166 199 188 199
24 94 57 111 150 214 191 224 185 225 276 287 296 361 334 245 214 172 283 131 111 91 122 140 143 152 170 172 150 147 188 200 196 172 155 161 147 144 150 183 200 214 225
139 183 205 192 197 219 248 230 260 267 323 313 320 298 309 320 251 251 304 216 117 104 86 110 151 166 183 191 186 176 194 218 222 206 195 169 150 158 152 156 166 161 157
250 281 253 265 242 303 327 272 319 349 335 319 330 346 305 293 274 245 254 196 101 83 104 103 134 193 178 193 185 193 197 233 251 240 208 201 176 163 135 104 102 88 73
194 445 357 344 286 348 399 387 355 388 450 473 409 369 294 298 203 191 109 85 125 100 110 56 81 135 161 172 168 140 172 170 204 207 208 179 167 129 77 106 92 115 87
229 205 425 398 407 398 436 393 371 469 431 318 286 331 279 223 193 149 163 96 105 81 67 71 104 96 125 164 183 170 190 159 132 109 93 110 149 91 99 131 121 115 98
186 236 343 328 392 402 433 341 373 346 321 418 285 169 188 192 122 106 74 106 112 117 107 117 124 110 95 100 100 96 124 152 243 281 314 272 241 213 232 215 241 188 199
212 336 338 317 471 449 478 360 330 298 322 190 181 156 128 126 97 78 100 86 111 164 156 50 96 81 130 181 269 259 295 291 266 347 366 249 269 241 278 272 311 302 346
142 206 265 360 370 459 416 413 418 305 213 168 138 117 46 75 57 80 91 94 120 128 122 91 108 224 298 311 300 300 276 314 339 266 321 306 342 349 366 355 307 351 376
108 134 198 277 387 380 397 266 133 169 139 107 126 93 85 99 108 115 123 123 128 141 193 228 283 329 299 286 258 232 250 225 217 314 349 318 345 385 380 391 390 407 373
79 82 103 145 120 177 163 151 120 137 169 164 169 160 156 132 121 125 137 135 156 220 277 301 301 274 301 276 206 215 200 227 294 200 284 254 314 323 353 355 331 362 352
34 50 53 44 45 49 65 91 119 164 200 213 218 217 187 200 276 261 214 253 267 258 279 231 259 303 240 185 225 165 219 173 115 177 209 220 167 173 198 252 268 335 302
45 63 89 90 103 93 79 97 183 231 247 271 290 293 296 322 373 400 437 476 388 312 341 321 299 254 317 171 100 213 159 95 107 166 144 165 132 175 168 164 228 268 306
165 177 181 182 163 122 151 267 323 317 355 375 413 432 425 375 379 425 443 471 512 417 370 250 182 245 215 130 149 196 171 127 105 100 71 60 90 129 138 149 204 229 300
251 246 240 237 262 264 287 379 446 437 482 517 503 503 505 488 461 514 470 438 431 394 312 253 194 201 191 190 178 144 139 106 92 93 108 70 106 126 102 91 63 196 248
310 299 269 264 275 305 350 429 509 528 593 634 614 581 612 594 526 361 357 330 416 344 216 249 266 283 278 276 230 139 193 154 91 120 148 124 82 90 52 26 160 178 183
364 356 365 341 350 398 445 513 568 604 703 741 768 723 681 552 480 400 362 324 281 256 149 182 186 211 242 237 252 158 124 104 88 42 114 121 130 118 -11 -22 161 86 108

GFSMA_con_3kmhel_114.txt.gz
Helicity
382 299 257 276 263 221 194 181 165 133 149 131 101 119 40 49 56 61 28 24 36 31 21 22 20 16 15 15 11 17 3 -1 3 10 14 14 8 13 17 6 10 6 6
446 371 337 286 272 283 247 229 155 137 150 135 133 98 77 70 49 52 49 31 41 25 23 22 17 19 20 13 14 12 5 2 9 16 17 13 10 12 7 4 7 2 6
411 334 322 302 286 316 334 282 221 191 176 163 110 128 77 65 53 59 51 53 46 41 33 21 26 26 29 14 17 10 13 15 16 14 12 5 -2 -1 6 3 -0 8 4
348 351 335 331 289 271 306 242 218 196 174 157 141 125 92 88 81 56 54 65 60 51 32 26 27 39 27 19 17 13 13 11 7 5 11 5 -4 -7 -2 -3 -1 13 6
258 327 312 330 194 233 287 269 241 189 175 132 126 115 103 101 70 55 56 59 48 54 43 28 40 41 31 19 15 12 12 13 5 -4 -3 -7 -15 -11 -0 -0 9 15 9
184 471 316 283 304 233 294 288 227 250 198 125 150 137 141 119 85 70 60 45 34 53 26 35 44 43 33 25 10 9 10 8 5 -0 -11 -13 -8 -2 4 22 29 29 27
71 382 476 313 233 235 251 286 251 233 263 214 262 206 177 114 96 83 75 46 30 37 21 23 49 52 42 24 21 11 3 -1 -7 -4 5 11 22 25 44 60 71 70 61
276 488 379 276 209 215 260 286 280 317 252 192 193 242 186 172 113 75 61 37 20 31 14 7 52 63 66 64 56 25 -0 -11 -18 -18 -3 25 62 83 104 103 108 125 108
184 229 246 234 201 217 223 251 266 217 273 198 154 184 237 188 170 106 41 44 89 26 4 27 54 63 74 77 68 58 50 38 3 -19 -11 8 26 57 90 125 148 162 164
131 150 170 188 178 197 210 244 239 260 338 260 224 248 185 139 199 168 100 60 64 80 69 67 65 84 102 116 124 129 118 95 81 59 25 29 47 64 81 100 133 157 169
67 179 208 139 147 161 198 236 238 245 334 311 330 332 295 233 177 191 151 128 140 120 92 105 89 104 131 142 163 172 157 154 155 126 122 117 108 100 96 101 102 110 107
131 96 148 158 108 125 167 229 235 254 302 278 343 325 305 266 221 236 236 312 195 138 116 128 118 92 113 165 162 153 154 155 157 155 149 135 119 105 76 70 62 63 68
142 136 102 103 153 152 183 224 266 296 287 266 306 331 317 259 237 266 318 344 373 272 289 189 121 63 93 155 182 160 135 159 165 156 155 131 127 116 91 114 103 85 76
166 122 109 137 196 177 208 232 287 295 318 312 299 349 393 372 361 409 370 347 317 192 164 70 78 64 60 75 94 122 103 101 91 108 132 118 129 144 167 196 216 205 161
89 94 131 174 252 206 265 276 342 416 401 279 326 305 412 493 388 376 235 243 212 109 66 60 83 89 97 108 91 56 70 226 244 239 249 305 330 357 369 337 377 237 216
96 78 96 188 409 325 342 364 380 470 490 408 298 284 274 426 329 256 209 206 132 116 62 63 77 63 101 152 215 206 258 291 351 353 378 358 349 373 335 314 276 306 281
76 101 161 304 344 561 400 378 375 360 435 391 326 271 325 322 275 171 180 128 100 86 80 72 70 152 160 213 263 284 306 324 262 307 334 325 344 361 326 278 324 295 304
114 140 151 176 237 470 419 430 401 475 355 345 289 275 322 105 115 177 128 93 79 93 93 74 186 201 238 225 256 277 302 257 217 314 344 325 254 302 254 369 274 328 335
73 104 173 242 192 186 332 458 399 346 293 258 300 291 164 137 161 161 142 138 139 144 175 189 239 215 238 299 248 220 234 292 252 300 338 330 299 306 311 289 280 314 309
39 82 132 200 236 316 284 393 295 279 463 405 360 276 254 176 159 149 152 163 181 209 212 229 245 293 268 234 176 134 158 255 220 277 318 249 211 215 228 260 252 270 257
39 41 68 76 160 251 355 342 295 323 269 319 320 309 248 232 266 249 197 202 216 236 248 257 277 273 264 254 261 228 209 215 165 177 147 160 121 125 134 172 175 201 181
65 72 65 74 103 108 83 131 161 258 292 312 329 319 269 254 311 360 393 465 354 287 282 273 310 321 355 290 271 274 191 150 148 177 150 171 111 130 129 161 183 172 160
136 145 153 138 116 80 106 189 241 282 297 268 259 284 311 313 330 360 427 482 544 523 440 311 298 255 260 282 260 228 178 104 53 81 74 56 93 90 100 103 81 76 158
211 193 191 189 190 187 213 309 365 356 396 392 395 391 394 382 361 369 462 488 483 474 416 387 322 312 253 202 144 75 78 79 38 41 80 4 31 55 30 -13 -2 68 148
274 284 243 239 246 259 311 388 462 458 499 496 465 445 442 423 455 454 445 469 492 445 373 292 314 247 221 220 158 101 157 119 68 62 106 41 -6 -11 -43 -69 -25 52 72
312 306 329 325 320 326 331 360 448 506 565 589 604 648 639 593 581 555 462 474 444 408 252 261 222 167 144 161 173 116 59 37 2 -57 31 12 12 -23 -144 -177 28 -19 34

GFSMA_con_3kmhel_117.txt.gz
Helicity
376 413 273 280 258 251 139 185 171 107 73 78 79 66 42 44 57 30 31 23 41 43 42 13 11 7 -2 7 6 5 8 3 10 13 5 2 -0 11 12 15 19 15 9
344 290 287 267 264 245 101 186 217 131 61 73 81 59 35 41 27 30 27 27 54 48 18 8 9 14 12 18 16 7 9 1 2 17 15 11 16 24 16 16 18 11 3
310 306 329 407 264 290 186 198 158 145 83 85 83 63 57 46 20 29 40 46 44 27 11 24 29 24 24 25 12 12 15 8 8 17 21 20 17 11 10 14 9 4 -2
188 235 354 388 362 342 253 249 180 131 105 102 94 86 60 56 21 32 48 40 34 27 25 39 41 37 28 23 16 20 24 11 8 11 14 15 10 8 10 11 4 -1 2
230 282 366 480 375 327 304 265 189 172 143 109 93 104 65 63 30 38 32 37 34 24 33 44 44 47 35 20 24 27 21 16 9 5 12 13 17 14 13 12 11 14 7
205 232 319 627 435 353 312 275 220 191 144 135 140 118 88 83 50 46 42 45 32 32 30 26 36 36 30 24 17 16 16 15 14 9 7 10 21 19 19 21 22 24 23
172 221 331 373 361 339 315 276 274 237 194 166 179 154 129 98 62 59 58 46 32 25 17 12 36 31 26 19 17 13 10 3 1 15 23 33 38 54 58 67 64 54 50
172 137 296 526 343 305 285 285 254 254 217 183 186 155 189 122 74 65 62 34 32 15 5 -4 7 12 1 17 20 19 5 -3 -3 -5 2 25 42 65 96 97 93 98 104
128 141 190 404 391 338 242 229 252 268 275 184 146 205 244 163 104 77 34 37 24 13 5 -1 8 13 1 9 23 32 36 32 17 6 6 11 17 29 47 71 91 111 119
199 277 283 433 337 267 283 240 250 264 284 254 177 222 172 134 144 149 90 65 51 54 102 111 53 48 18 35 44 49 68 78 74 53 37 36 41 46 51 57 71 80 93
195 252 251 271 304 269 241 214 210 222 242 305 258 256 224 153 127 148 156 129 81 54 69 23 54 88 86 102 96 81 120 124 123 88 62 54 48 47 56 55 48 54 65
121 161 184 222 245 229 201 206 208 247 268 238 248 238 245 224 168 163 174 145 113 147 89 101 151 52 53 58 43 62 136 141 138 95 65 71 63 58 61 69 82 109 113
118 123 100 208 182 169 169 210 225 247 260 264 273 268 250 198 171 182 164 207 241 249 168 164 99 85 108 131 56 26 73 70 86 75 72 96 120 142 154 158 155 178 198
104 99 111 121 129 175 165 157 205 239 257 284 245 254 279 262 223 231 236 284 325 188 218 234 177 90 81 86 3 65 66 98 163 183 189 212 230 260 295 293 306 305 318
60 124 110 90 96 176 175 113 151 213 252 304 305 293 292 299 278 327 353 318 351 283 254 270 190 163 101 102 144 154 183 220 260 240 247 260 281 300 323 354 342 296 316
53 113 80 137 116 68 156 151 179 204 269 321 353 341 383 376 366 358 353 364 283 266 209 142 161 111 86 155 251 254 253 307 320 302 295 296 272 260 277 303 347 382 329
1 -4 4 92 185 234 149 223 249 249 279 364 396 443 517 373 331 289 258 305 263 249 191 172 105 115 206 200 283 327 307 242 242 285 322 252 250 296 295 264 254 272 258
-2 -40 11 63 158 200 336 342 280 311 295 403 447 496 490 383 188 197 290 210 276 189 186 65 139 175 203 254 315 347 299 299 218 260 287 330 227 255 238 224 263 189 189
53 18 45 40 126 203 233 341 333 374 390 385 356 399 374 260 185 288 219 166 193 198 175 134 172 197 258 291 299 266 283 284 267 304 261 267 181 220 224 278 196 170 223
70 63 56 45 120 224 286 260 449 486 317 301 280 359 159 236 308 209 214 248 215 196 187 235 247 262 254 299 278 265 257 234 209 239 235 207 180 156 165 185 158 157 155
26 60 75 95 71 117 197 172 301 575 484 579 526 486 483 397 401 372 290 257 215 212 220 260 298 310 310 299 246 223 219 226 195 270 222 143 87 115 126 141 127 142 131
34 60 83 89 106 167 319 393 520 362 416 533 616 467 372 397 411 423 469 499 379 280 311 315 333 373 356 265 266 279 243 185 186 198 224 158 94 146 97 95 110 99 107
89 91 100 117 135 132 173 300 500 419 386 280 322 367 351 360 407 459 550 586 584 561 473 342 364 312 306 327 275 293 273 199 194 169 108 45 67 69 71 51 49 46 85
152 132 149 142 167 185 271 325 319 315 393 362 348 354 350 333 325 381 477 546 542 515 472 394 346 320 338 341 337 258 184 158 12 1 53 -16 25 42 40 20 17 72 121
258 245 214 211 225 242 271 333 356 380 412 406 425 383 352 349 322 343 428 419 442 500 470 513 478 483 521 453 194 58 103 84 27 14 48 -8 -15 -9 -31 -75 -58 -0 2
339 330 325 287 255 286 311 356 412 398 438 452 473 477 416 403 397 424 369 354 393 360 402 416 398 327 235 184 142 80 42 31 21 -8 56 -0 9 2 -118 -153 -58 -30 -53

GFSMA_con_3kmhel_123.txt.gz
Helicity
233 204 179 224 152 216 213 167 93 76 -49 68 54 127 48 58 104 96 52 62 55 48 25 37 44 20 29 28 26 37 40 38 37 29 23 19 18 12 2 1 8 16 21
239 250 211 233 204 228 235 158 90 75 28 161 143 93 63 77 61 77 73 60 64 40 32 28 33 15 20 19 16 29 35 30 25 25 13 9 9 10 9 12 19 20 18
225 246 251 200 259 290 220 198 31 111 65 148 98 85 77 88 63 63 48 68 71 57 35 24 41 9 23 24 34 33 32 30 23 22 14 9 12 20 24 19 25 28 20
228 233 268 194 220 230 309 200 76 26 44 78 77 100 119 84 94 104 70 62 63 47 40 27 43 27 24 35 37 32 30 27 27 23 19 17 19 31 34 28 25 24 16
247 276 293 213 214 261 282 210 187 204 148 101 70 87 119 101 88 67 55 45 41 46 30 48 35 44 39 39 28 29 27 32 35 28 24 23 27 37 36 28 23 23 20
259 254 320 255 220 303 299 303 179 93 83 102 68 132 110 171 89 83 92 87 67 39 19 48 44 43 43 44 29 18 28 41 39 31 23 23 28 34 38 32 27 27 27
214 287 310 338 262 305 362 400 326 169 103 117 139 159 210 150 128 125 128 86 83 56 28 27 40 38 43 31 26 20 20 32 42 34 30 28 31 40 52 55 57 55 56
275 229 257 294 291 336 380 342 289 290 166 135 241 237 234 119 118 112 81 72 91 54 33 31 26 23 40 30 31 32 17 16 24 26 30 40 46 55 61 60 69 76 75
226 239 221 256 241 304 428 378 378 321 156 143 219 267 292 219 189 141 103 83 116 65 44 31 23 9 -25 15 60 76 61 27 16 21 22 26 30 35 41 44 47 45 43
172 183 222 220 252 320 396 376 410 256 206 205 176 179 167 152 196 173 119 109 92 52 59 49 40 30 15 -19 41 152 121 120 106 62 34 21 18 27 33 43 51 52 48
152 186 218 235 297 306 325 515 399 355 246 190 184 143 148 120 102 104 151 140 100 63 58 49 77 83 62 25 50 256 200 151 118 69 37 39 51 61 70 73 75 91 105
174 193 177 187 189 235 299 468 443 410 289 114 188 209 188 208 132 116 118 119 137 83 66 76 73 83 70 44 259 294 238 200 161 120 111 105 111 116 128 149 175 218 267
172 174 171 171 161 219 279 370 325 420 222 183 189 185 236 189 182 106 107 115 128 106 112 152 122 89 59 349 358 280 315 277 231 203 303 248 246 246 274 308 304 288 271
168 174 176 170 154 204 285 314 416 392 415 339 248 162 254 247 190 141 153 178 125 196 173 195 248 312 395 365 301 292 318 424 356 326 322 323 276 267 287 305 291 302 317
153 171 170 169 154 196 257 298 468 443 367 391 283 171 216 230 173 164 146 191 234 274 235 260 343 331 348 362 305 278 395 396 320 276 295 256 211 252 250 244 225 216 231
163 170 162 151 148 164 210 271 299 343 425 263 193 122 152 186 176 208 192 260 259 244 309 300 428 476 426 439 425 445 414 369 280 268 260 214 243 211 213 223 204 201 217
121 170 160 168 150 159 171 211 240 252 267 273 237 140 153 194 211 279 315 302 278 277 265 340 416 404 350 384 430 393 362 278 277 294 230 212 163 217 234 216 206 193 172
130 158 142 141 185 183 201 182 259 264 266 305 255 124 139 181 247 307 296 283 285 283 362 353 355 300 359 447 475 451 385 266 266 275 208 181 196 230 192 199 180 159 159
103 100 99 110 173 214 189 222 236 261 310 271 160 83 82 144 231 264 281 358 337 373 381 483 384 439 402 337 461 523 387 306 251 261 217 194 163 160 202 200 203 198 214
107 99 98 97 130 151 163 184 205 253 189 191 188 164 162 235 299 307 322 363 368 352 382 470 489 446 444 441 445 341 335 270 258 216 222 191 168 174 113 145 227 225 204
109 113 117 118 115 104 122 153 174 211 228 256 342 376 345 340 423 429 406 476 337 439 561 463 393 354 427 461 413 361 318 258 278 291 222 218 230 158 167 170 172 159 147
140 116 132 196 149 138 103 94 166 196 319 501 692 688 681 703 767 681 567 853 478 476 354 334 395 517 523 425 380 329 289 274 274 306 286 208 186 142 113 103 146 131 113
186 209 189 168 162 163 271 368 493 449 627 747 752 799 896 886 984 903 890 711 605 547 500 455 598 471 470 352 341 365 339 329 328 294 249 176 166 163 105 101 125 105 117
210 223 201 169 162 196 293 461 474 439 509 581 549 574 704 694 525 623 663 585 561 556 501 489 481 447 379 363 385 382 351 276 224 216 190 169 154 132 125 98 102 118 127
253 246 215 205 176 169 259 351 380 405 400 415 405 450 529 492 396 488 602 589 567 562 544 543 494 457 466 487 444 298 272 232 182 123 169 124 130 128 102 102 113 106 109
295 285 294 256 208 199 215 333 392 383 404 381 400 428 404 364 364 364 454 510 529 403 413 460 468 484 456 397 294 228 218 171 149 96 148 120 117 125 113 88 99 94 105